Wetterdaten: Dienstag, 29.03.2016
Datum Zeit Temp. Aussen Temp. o. S. +5cm Feuchte Auss BlattFeu 1 Luftdruck Regen Sonnenschein Regendauer Solar Windben Empfang
29.03.2016 00:00 8,1 C 8,3 C 6,7 C 82 % 0 lf 999,1 hPa 0,0 l/m 0 min 0 min 0 W/m 18,8 km/h (3 Bft) 95,74 %
29.03.2016 00:02 8,1 C 8,3 C 6,7 C 82 % 0 lf 999,2 hPa 0,0 l/m 0 min 0 min 0 W/m 18,8 km/h (3 Bft) 100,00 %
29.03.2016 00:06 8,1 C 8,3 C 6,7 C 82 % 0 lf 999,2 hPa 0,0 l/m 0 min 0 min 0 W/m 25,1 km/h (4 Bft) 97,87 %
29.03.2016 00:08 8,1 C 8,3 C 6,7 C 82 % 1 lf 999,2 hPa 0,0 l/m 0 min 0 min 0 W/m 20,9 km/h (4 Bft) 100,00 %
29.03.2016 00:10 8,1 C 7,8 C 6,7 C 82 % 0 lf 999,2 hPa 0,0 l/m 0 min 0 min 0 W/m 18,8 km/h (3 Bft) 100,00 %
29.03.2016 00:12 8,0 C 7,8 C 6,7 C 82 % 2 lf 999,2 hPa 0,0 l/m 0 min 2 min 0 W/m 8,4 km/h (2 Bft) 100,00 %
29.03.2016 00:14 8,1 C 7,8 C 6,7 C 82 % 2 lf 999,3 hPa 0,0 l/m 0 min 2 min 0 W/m 18,8 km/h (3 Bft) 95,65 %
29.03.2016 00:16 8,0 C 7,8 C 6,7 C 82 % 0 lf 999,2 hPa 0,0 l/m 0 min 0 min 0 W/m 25,1 km/h (4 Bft) 91,49 %
29.03.2016 00:18 8,0 C 7,8 C 6,1 C 82 % 0 lf 999,2 hPa 0,0 l/m 0 min 0 min 0 W/m 18,8 km/h (3 Bft) 95,74 %
29.03.2016 00:20 8,0 C 7,8 C 6,1 C 82 % 0 lf 999,2 hPa 0,0 l/m 0 min 0 min 0 W/m 14,6 km/h (3 Bft) 93,62 %
29.03.2016 00:22 8,0 C 7,8 C 6,1 C 82 % 0 lf 999,2 hPa 0,0 l/m 0 min 0 min 0 W/m 20,9 km/h (4 Bft) 91,49 %
29.03.2016 00:24 8,0 C 7,8 C 6,1 C 82 % 0 lf 999,2 hPa 0,0 l/m 0 min 0 min 0 W/m 18,8 km/h (3 Bft) 95,74 %
29.03.2016 00:26 7,9 C 7,8 C 6,1 C 82 % 0 lf 999,2 hPa 0,0 l/m 0 min 0 min 0 W/m 16,7 km/h (3 Bft) 91,30 %
29.03.2016 00:28 7,9 C 7,8 C 6,1 C 82 % 0 lf 999,3 hPa 0,0 l/m 0 min 0 min 0 W/m 27,2 km/h (4 Bft) 93,62 %
29.03.2016 00:30 7,9 C 7,8 C 6,1 C 82 % 0 lf 999,3 hPa 0,0 l/m 0 min 0 min 0 W/m 27,2 km/h (4 Bft) 95,74 %
29.03.2016 00:32 7,9 C 7,8 C 6,1 C 82 % 0 lf 999,3 hPa 0,0 l/m 0 min 0 min 0 W/m 18,8 km/h (3 Bft) 95,74 %
29.03.2016 00:34 7,9 C 7,8 C 6,1 C 82 % 0 lf 999,3 hPa 0,0 l/m 0 min 0 min 0 W/m 23,0 km/h (4 Bft) 95,74 %
29.03.2016 00:36 7,8 C 7,8 C 6,1 C 82 % 0 lf 999,4 hPa 0,0 l/m 0 min 0 min 0 W/m 16,7 km/h (3 Bft) 93,62 %
29.03.2016 00:38 7,8 C 7,8 C 6,1 C 82 % 0 lf 999,3 hPa 0,0 l/m 0 min 0 min 0 W/m 31,4 km/h (5 Bft) 93,48 %
29.03.2016 00:40 7,8 C 7,8 C 6,1 C 82 % 0 lf 999,4 hPa 0,0 l/m 0 min 0 min 0 W/m 20,9 km/h (4 Bft) 95,74 %
29.03.2016 00:42 7,8 C 7,8 C 6,1 C 82 % 0 lf 999,5 hPa 0,0 l/m 0 min 0 min 0 W/m 20,9 km/h (4 Bft) 93,62 %
29.03.2016 00:44 7,7 C 7,8 C 6,1 C 82 % 0 lf 999,4 hPa 0,0 l/m 0 min 0 min 0 W/m 39,7 km/h (6 Bft) 95,74 %
29.03.2016 00:46 7,7 C 7,8 C 6,1 C 82 % 0 lf 999,5 hPa 0,0 l/m 0 min 0 min 0 W/m 27,2 km/h (4 Bft) 97,87 %
29.03.2016 00:48 7,7 C 7,8 C 6,1 C 82 % 0 lf 999,5 hPa 0,0 l/m 0 min 0 min 0 W/m 23,0 km/h (4 Bft) 97,87 %
29.03.2016 00:50 7,7 C 7,8 C 6,1 C 82 % 0 lf 999,5 hPa 0,0 l/m 0 min 0 min 0 W/m 27,2 km/h (4 Bft) 95,65 %
29.03.2016 00:52 7,7 C 7,8 C 6,1 C 82 % 0 lf 999,5 hPa 0,0 l/m 0 min 0 min 0 W/m 31,4 km/h (5 Bft) 93,62 %
29.03.2016 00:54 7,7 C 7,8 C 6,1 C 82 % 0 lf 999,5 hPa 0,0 l/m 0 min 0 min 0 W/m 27,2 km/h (4 Bft) 97,87 %
29.03.2016 00:56 7,7 C 7,8 C 6,1 C 82 % 0 lf 999,6 hPa 0,0 l/m 0 min 0 min 0 W/m 29,3 km/h (5 Bft) 93,62 %
29.03.2016 00:58 7,7 C 7,8 C 6,1 C 82 % 0 lf 999,6 hPa 0,0 l/m 0 min 0 min 0 W/m 29,3 km/h (5 Bft) 95,74 %
29.03.2016 01:00 7,6 C 7,8 C 6,1 C 82 % 0 lf 999,6 hPa 0,0 l/m 0 min 0 min 0 W/m 35,6 km/h (5 Bft) 97,87 %
29.03.2016 01:02 7,6 C 7,8 C 6,1 C 82 % 0 lf 999,6 hPa 0,0 l/m 0 min 0 min 0 W/m 29,3 km/h (5 Bft) 95,65 %
29.03.2016 01:04 7,6 C 7,8 C 6,1 C 82 % 0 lf 999,6 hPa 0,0 l/m 0 min 0 min 0 W/m 56,5 km/h (7 Bft) 93,62 %
29.03.2016 01:06 7,6 C 7,8 C 6,1 C 81 % 0 lf 999,6 hPa 0,0 l/m 0 min 0 min 0 W/m 29,3 km/h (5 Bft) 97,87 %
29.03.2016 01:08 7,6 C 7,8 C 6,1 C 82 % 0 lf 999,6 hPa 0,0 l/m 0 min 0 min 0 W/m 35,6 km/h (5 Bft) 95,74 %
29.03.2016 01:10 7,6 C 7,8 C 6,1 C 82 % 0 lf 999,7 hPa 0,0 l/m 0 min 0 min 0 W/m 29,3 km/h (5 Bft) 97,87 %
29.03.2016 01:12 7,6 C 7,8 C 6,1 C 82 % 0 lf 999,8 hPa 0,0 l/m 0 min 0 min 0 W/m 33,5 km/h (5 Bft) 95,74 %
29.03.2016 01:14 7,6 C 7,2 C 6,1 C 82 % 0 lf 999,8 hPa 0,0 l/m 0 min 0 min 0 W/m 29,3 km/h (5 Bft) 95,65 %
29.03.2016 01:16 7,5 C 7,2 C 6,1 C 82 % 0 lf 999,7 hPa 0,0 l/m 0 min 0 min 0 W/m 23,0 km/h (4 Bft) 95,74 %
29.03.2016 01:18 7,5 C 7,2 C 6,1 C 82 % 0 lf 999,8 hPa 0,0 l/m 0 min 0 min 0 W/m 43,9 km/h (6 Bft) 95,74 %
29.03.2016 01:20 7,5 C 7,2 C 6,1 C 82 % 0 lf 999,8 hPa 0,0 l/m 0 min 0 min 0 W/m 29,3 km/h (5 Bft) 97,87 %
29.03.2016 01:22 7,4 C 7,2 C 6,1 C 83 % 0 lf 999,9 hPa 0,0 l/m 0 min 0 min 0 W/m 43,9 km/h (6 Bft) 97,87 %
29.03.2016 01:24 7,4 C 7,2 C 6,1 C 83 % 0 lf 999,9 hPa 0,0 l/m 0 min 0 min 0 W/m 33,5 km/h (5 Bft) 93,48 %
29.03.2016 01:26 7,4 C 7,2 C 6,1 C 83 % 0 lf 999,9 hPa 0,0 l/m 0 min 0 min 0 W/m 31,4 km/h (5 Bft) 95,74 %
29.03.2016 01:28 7,4 C 7,2 C 6,1 C 83 % 0 lf 999,9 hPa 0,0 l/m 0 min 0 min 0 W/m 33,5 km/h (5 Bft) 95,74 %
29.03.2016 01:30 7,4 C 7,2 C 6,1 C 83 % 0 lf 999,9 hPa 0,0 l/m 0 min 0 min 0 W/m 35,6 km/h (5 Bft) 97,87 %
29.03.2016 01:32 7,3 C 7,2 C 6,1 C 83 % 0 lf 1000,0 hPa 0,0 l/m 0 min 0 min 0 W/m 39,7 km/h (6 Bft) 95,74 %
29.03.2016 01:34 7,3 C 7,2 C 6,1 C 84 % 0 lf 1000,0 hPa 0,0 l/m 0 min 0 min 0 W/m 39,7 km/h (6 Bft) 97,87 %
29.03.2016 01:36 7,3 C 7,2 C 5,6 C 84 % 0 lf 999,9 hPa 0,0 l/m 0 min 0 min 0 W/m 39,7 km/h (6 Bft) 97,83 %
29.03.2016 01:38 7,2 C 7,2 C 5,6 C 84 % 0 lf 999,9 hPa 0,0 l/m 0 min 0 min 0 W/m 31,4 km/h (5 Bft) 95,74 %
29.03.2016 01:40 7,2 C 7,2 C 5,6 C 84 % 0 lf 1000,0 hPa 0,0 l/m 0 min 0 min 0 W/m 43,9 km/h (6 Bft) 100,00 %
29.03.2016 01:42 7,2 C 7,2 C 5,6 C 83 % 0 lf 1000,0 hPa 0,0 l/m 0 min 0 min 0 W/m 43,9 km/h (6 Bft) 93,62 %
29.03.2016 01:44 7,1 C 7,2 C 5,6 C 83 % 0 lf 1000,0 hPa 0,0 l/m 0 min 0 min 0 W/m 43,9 km/h (6 Bft) 95,74 %
29.03.2016 01:46 7,1 C 7,2 C 5,6 C 83 % 0 lf 1000,0 hPa 0,0 l/m 0 min 0 min 0 W/m 50,2 km/h (7 Bft) 97,87 %
29.03.2016 01:48 7,1 C 7,2 C 5,6 C 83 % 0 lf 1000,1 hPa 0,0 l/m 0 min 0 min 0 W/m 46,0 km/h (6 Bft) 95,65 %
29.03.2016 01:50 7,1 C 7,2 C 5,6 C 83 % 0 lf 1000,2 hPa 0,0 l/m 0 min 0 min 0 W/m 41,8 km/h (6 Bft) 95,74 %
29.03.2016 01:52 7,0 C 7,2 C 5,6 C 83 % 0 lf 1000,2 hPa 0,0 l/m 0 min 0 min 0 W/m 48,1 km/h (6 Bft) 97,87 %
29.03.2016 01:54 7,0 C 6,7 C 5,6 C 83 % 1 lf 1000,3 hPa 0,0 l/m 0 min 0 min 0 W/m 39,7 km/h (6 Bft) 97,87 %
29.03.2016 01:56 6,9 C 6,7 C 5,6 C 83 % 12 lf 1000,2 hPa 0,0 l/m 0 min 2 min 0 W/m 46,0 km/h (6 Bft) 97,87 %
29.03.2016 01:58 6,9 C 6,7 C 5,0 C 83 % 15 lf 1000,4 hPa 0,0 l/m 0 min 2 min 0 W/m 52,3 km/h (7 Bft) 100,00 %
29.03.2016 02:00 6,9 C 6,7 C 5,0 C 84 % 15 lf 1000,4 hPa 0,0 l/m 0 min 2 min 0 W/m 41,8 km/h (6 Bft) 97,83 %
29.03.2016 02:02 6,8 C 6,1 C 5,0 C 84 % 15 lf 1000,5 hPa 0,0 l/m 0 min 2 min 0 W/m 37,7 km/h (5 Bft) 97,87 %
29.03.2016 02:04 6,7 C 6,1 C 4,4 C 84 % 15 lf 1000,4 hPa 0,0 l/m 0 min 2 min 0 W/m 33,5 km/h (5 Bft) 95,74 %
29.03.2016 02:06 6,6 C 5,6 C 4,4 C 85 % 15 lf 1000,5 hPa 0,2 l/m 0 min 2 min 0 W/m 33,5 km/h (5 Bft) 97,87 %
29.03.2016 02:08 6,6 C 5,6 C 4,4 C 85 % 15 lf 1000,5 hPa 0,0 l/m 0 min 2 min 0 W/m 35,6 km/h (5 Bft) 95,74 %
29.03.2016 02:10 6,4 C 5,6 C 3,9 C 85 % 15 lf 1000,5 hPa 0,0 l/m 0 min 2 min 0 W/m 43,9 km/h (6 Bft) 93,62 %
29.03.2016 02:12 6,4 C 5,0 C 3,9 C 85 % 15 lf 1000,4 hPa 0,0 l/m 0 min 2 min 0 W/m 29,3 km/h (5 Bft) 95,65 %
29.03.2016 02:14 6,4 C 5,0 C 3,9 C 86 % 15 lf 1000,5 hPa 0,0 l/m 0 min 2 min 0 W/m 35,6 km/h (5 Bft) 93,62 %
29.03.2016 02:16 6,3 C 5,0 C 3,9 C 86 % 15 lf 1000,5 hPa 0,2 l/m 0 min 2 min 0 W/m 29,3 km/h (5 Bft) 91,49 %
29.03.2016 02:18 6,2 C 5,0 C 3,9 C 87 % 15 lf 1000,5 hPa 0,0 l/m 0 min 2 min 0 W/m 33,5 km/h (5 Bft) 95,74 %
29.03.2016 02:20 6,2 C 5,0 C 3,9 C 87 % 15 lf 1000,5 hPa 0,0 l/m 0 min 2 min 0 W/m 29,3 km/h (5 Bft) 97,87 %
29.03.2016 02:22 6,2 C 5,0 C 3,9 C 87 % 15 lf 1000,5 hPa 0,0 l/m 0 min 2 min 0 W/m 23,0 km/h (4 Bft) 91,49 %
29.03.2016 02:24 6,1 C 5,0 C 3,9 C 87 % 15 lf 1000,5 hPa 0,2 l/m 0 min 2 min 0 W/m 31,4 km/h (5 Bft) 95,65 %
29.03.2016 02:26 6,1 C 5,0 C 3,9 C 88 % 15 lf 1000,4 hPa 0,0 l/m 0 min 2 min 0 W/m 25,1 km/h (4 Bft) 93,62 %
29.03.2016 02:28 6,0 C 5,0 C 3,9 C 88 % 15 lf 1000,5 hPa 0,0 l/m 0 min 2 min 0 W/m 31,4 km/h (5 Bft) 93,62 %
29.03.2016 02:30 6,0 C 5,0 C 3,9 C 88 % 15 lf 1000,5 hPa 0,0 l/m 0 min 2 min 0 W/m 25,1 km/h (4 Bft) 91,49 %
29.03.2016 02:32 5,9 C 5,0 C 3,9 C 89 % 15 lf 1000,5 hPa 0,0 l/m 0 min 2 min 0 W/m 23,0 km/h (4 Bft) 93,62 %
29.03.2016 02:34 5,9 C 5,0 C 3,9 C 89 % 15 lf 1000,6 hPa 0,0 l/m 0 min 2 min 0 W/m 25,1 km/h (4 Bft) 95,74 %
29.03.2016 02:36 5,9 C 5,0 C 3,9 C 89 % 15 lf 1000,6 hPa 0,0 l/m 0 min 0 min 0 W/m 23,0 km/h (4 Bft) 97,83 %
29.03.2016 02:38 5,9 C 5,0 C 3,9 C 89 % 15 lf 1000,7 hPa 0,0 l/m 0 min 2 min 0 W/m 35,6 km/h (5 Bft) 95,74 %
29.03.2016 02:40 5,8 C 5,0 C 3,9 C 89 % 15 lf 1000,8 hPa 0,0 l/m 0 min 2 min 0 W/m 31,4 km/h (5 Bft) 95,74 %
29.03.2016 02:42 5,8 C 5,0 C 3,9 C 90 % 15 lf 1000,9 hPa 0,0 l/m 0 min 2 min 0 W/m 35,6 km/h (5 Bft) 93,62 %
29.03.2016 02:44 5,8 C 5,0 C 3,9 C 90 % 15 lf 1000,9 hPa 0,2 l/m 0 min 2 min 0 W/m 31,4 km/h (5 Bft) 97,87 %
29.03.2016 02:46 5,8 C 5,0 C 3,9 C 90 % 15 lf 1000,7 hPa 0,0 l/m 0 min 2 min 0 W/m 31,4 km/h (5 Bft) 97,83 %
29.03.2016 02:48 5,8 C 5,0 C 3,9 C 90 % 15 lf 1000,7 hPa 0,2 l/m 0 min 2 min 0 W/m 27,2 km/h (4 Bft) 97,87 %
29.03.2016 02:50 5,8 C 5,0 C 3,9 C 90 % 15 lf 1000,7 hPa 0,0 l/m 0 min 2 min 0 W/m 18,8 km/h (3 Bft) 95,74 %
29.03.2016 02:52 5,7 C 5,0 C 3,9 C 90 % 15 lf 1000,8 hPa 0,0 l/m 0 min 2 min 0 W/m 27,2 km/h (4 Bft) 91,49 %
29.03.2016 02:54 5,7 C 5,0 C 3,9 C 91 % 15 lf 1000,7 hPa 0,0 l/m 0 min 2 min 0 W/m 25,1 km/h (4 Bft) 95,74 %
29.03.2016 02:56 5,7 C 5,0 C 3,9 C 91 % 15 lf 1000,9 hPa 0,0 l/m 0 min 2 min 0 W/m 33,5 km/h (5 Bft) 95,74 %
29.03.2016 02:58 5,7 C 5,0 C 3,9 C 91 % 15 lf 1000,8 hPa 0,0 l/m 0 min 2 min 0 W/m 31,4 km/h (5 Bft) 93,48 %
29.03.2016 03:00 5,7 C 5,0 C 3,9 C 91 % 15 lf 1000,9 hPa 0,0 l/m 0 min 0 min 0 W/m 27,2 km/h (4 Bft) 95,74 %
29.03.2016 03:02 5,7 C 5,0 C 3,9 C 91 % 15 lf 1000,9 hPa 0,0 l/m 0 min 0 min 0 W/m 23,0 km/h (4 Bft) 93,62 %
29.03.2016 03:04 5,6 C 5,0 C 3,9 C 91 % 15 lf 1000,9 hPa 0,0 l/m 0 min 0 min 0 W/m 25,1 km/h (4 Bft) 95,74 %
29.03.2016 03:06 5,6 C 5,0 C 3,9 C 91 % 15 lf 1000,9 hPa 0,0 l/m 0 min 2 min 0 W/m 25,1 km/h (4 Bft) 91,49 %
29.03.2016 03:08 5,6 C 5,0 C 3,9 C 92 % 15 lf 1000,9 hPa 0,0 l/m 0 min 2 min 0 W/m 25,1 km/h (4 Bft) 95,74 %
29.03.2016 03:10 5,6 C 5,0 C 3,9 C 91 % 15 lf 1000,9 hPa 0,0 l/m 0 min 0 min 0 W/m 31,4 km/h (5 Bft) 95,65 %
29.03.2016 03:12 5,6 C 5,0 C 3,9 C 92 % 15 lf 1001,0 hPa 0,0 l/m 0 min 0 min 0 W/m 31,4 km/h (5 Bft) 91,49 %
29.03.2016 03:14 5,6 C 5,0 C 3,9 C 92 % 15 lf 1001,0 hPa 0,0 l/m 0 min 0 min 0 W/m 23,0 km/h (4 Bft) 93,62 %
29.03.2016 03:16 5,6 C 5,0 C 3,9 C 92 % 15 lf 1000,9 hPa 0,0 l/m 0 min 0 min 0 W/m 23,0 km/h (4 Bft) 91,49 %
29.03.2016 03:18 5,6 C 5,0 C 3,9 C 92 % 15 lf 1001,0 hPa 0,0 l/m 0 min 0 min 0 W/m 29,3 km/h (5 Bft) 97,87 %
29.03.2016 03:20 5,6 C 5,0 C 3,9 C 92 % 15 lf 1001,0 hPa 0,0 l/m 0 min 0 min 0 W/m 31,4 km/h (5 Bft) 95,74 %
29.03.2016 03:22 5,6 C 5,0 C 3,9 C 92 % 15 lf 1000,9 hPa 0,0 l/m 0 min 0 min 0 W/m 23,0 km/h (4 Bft) 95,65 %
29.03.2016 03:24 5,6 C 5,0 C 3,9 C 92 % 15 lf 1001,0 hPa 0,0 l/m 0 min 0 min 0 W/m 23,0 km/h (4 Bft) 91,49 %
29.03.2016 03:26 5,6 C 5,0 C 3,9 C 92 % 15 lf 1001,0 hPa 0,0 l/m 0 min 0 min 0 W/m 23,0 km/h (4 Bft) 93,62 %
29.03.2016 03:28 5,6 C 5,0 C 3,9 C 92 % 15 lf 1001,0 hPa 0,0 l/m 0 min 0 min 0 W/m 29,3 km/h (5 Bft) 95,74 %
29.03.2016 03:30 5,6 C 5,0 C 3,9 C 93 % 15 lf 1001,0 hPa 0,0 l/m 0 min 0 min 0 W/m 31,4 km/h (5 Bft) 95,74 %
29.03.2016 03:32 5,6 C 5,0 C 3,9 C 93 % 15 lf 1001,1 hPa 0,0 l/m 0 min 0 min 0 W/m 16,7 km/h (3 Bft) 97,87 %
29.03.2016 03:34 5,6 C 5,0 C 3,9 C 93 % 15 lf 1001,0 hPa 0,0 l/m 0 min 0 min 0 W/m 18,8 km/h (3 Bft) 93,48 %
29.03.2016 03:36 5,6 C 5,0 C 3,9 C 93 % 15 lf 1001,1 hPa 0,0 l/m 0 min 0 min 0 W/m 27,2 km/h (4 Bft) 97,87 %
29.03.2016 03:38 5,6 C 5,6 C 3,9 C 93 % 15 lf 1001,1 hPa 0,0 l/m 0 min 2 min 0 W/m 33,5 km/h (5 Bft) 97,87 %
29.03.2016 03:40 5,6 C 5,6 C 3,9 C 93 % 15 lf 1001,2 hPa 0,0 l/m 0 min 0 min 0 W/m 23,0 km/h (4 Bft) 100,00 %
29.03.2016 03:42 5,6 C 5,6 C 3,9 C 93 % 15 lf 1001,3 hPa 0,0 l/m 0 min 0 min 0 W/m 43,9 km/h (6 Bft) 97,87 %
29.03.2016 03:44 5,6 C 5,6 C 3,9 C 93 % 15 lf 1001,2 hPa 0,0 l/m 0 min 0 min 0 W/m 37,7 km/h (5 Bft) 97,87 %
29.03.2016 03:46 5,6 C 5,6 C 3,9 C 93 % 15 lf 1001,3 hPa 0,0 l/m 0 min 0 min 0 W/m 25,1 km/h (4 Bft) 93,48 %
29.03.2016 03:48 5,6 C 5,6 C 3,9 C 93 % 15 lf 1001,3 hPa 0,0 l/m 0 min 0 min 0 W/m 31,4 km/h (5 Bft) 95,74 %
29.03.2016 03:50 5,6 C 5,0 C 3,9 C 93 % 15 lf 1001,4 hPa 0,0 l/m 0 min 0 min 0 W/m 31,4 km/h (5 Bft) 100,00 %
29.03.2016 03:52 5,7 C 5,0 C 3,9 C 93 % 15 lf 1001,4 hPa 0,0 l/m 0 min 0 min 0 W/m 25,1 km/h (4 Bft) 97,87 %
29.03.2016 03:54 5,7 C 5,0 C 3,9 C 92 % 15 lf 1001,4 hPa 0,0 l/m 0 min 2 min 0 W/m 27,2 km/h (4 Bft) 100,00 %
29.03.2016 03:56 5,6 C 5,0 C 3,9 C 92 % 15 lf 1001,4 hPa 0,0 l/m 0 min 0 min 0 W/m 20,9 km/h (4 Bft) 97,87 %
29.03.2016 03:58 5,6 C 5,0 C 3,9 C 92 % 15 lf 1001,5 hPa 0,0 l/m 0 min 2 min 0 W/m 31,4 km/h (5 Bft) 95,65 %
29.03.2016 04:00 5,6 C 5,0 C 3,9 C 92 % 15 lf 1001,5 hPa 0,0 l/m 0 min 2 min 0 W/m 31,4 km/h (5 Bft) 97,87 %
29.03.2016 04:01 5,6 C 5,0 C 3,9 C 92 % 15 lf 1001,6 hPa 0,0 l/m 0 min 0 min 0 W/m 14,6 km/h (3 Bft) 17,39 %
29.03.2016 04:02 5,6 C 5,0 C 3,9 C 92 % 15 lf 1001,6 hPa 0,0 l/m 0 min 0 min 0 W/m 0,0 km/h (0 Bft) 0,00 %
29.03.2016 04:03 5,6 C 5,0 C 3,9 C 92 % 15 lf 1001,5 hPa 0,0 l/m 0 min 0 min 0 W/m 0,0 km/h (0 Bft) 0,00 %
29.03.2016 04:04 5,6 C 5,0 C 3,9 C 92 % 15 lf 1001,5 hPa 0,0 l/m 0 min 0 min 0 W/m 0,0 km/h (0 Bft) 0,00 %
29.03.2016 04:05 5,6 C 5,0 C 3,9 C 92 % 15 lf 1001,5 hPa 0,0 l/m 0 min 0 min 0 W/m 0,0 km/h (0 Bft) 0,00 %
29.03.2016 04:06 5,6 C 5,0 C 3,9 C 92 % 15 lf 1001,4 hPa 0,0 l/m 0 min 0 min 0 W/m 0,0 km/h (0 Bft) 0,00 %
29.03.2016 04:07 5,7 C 5,6 C 3,9 C 92 % 15 lf 1001,5 hPa 0,0 l/m 0 min 0 min 0 W/m 37,7 km/h (5 Bft) 43,48 %
29.03.2016 04:10 5,7 C 5,6 C 3,9 C 92 % 15 lf 1001,6 hPa 0,0 l/m 0 min 0 min 0 W/m 31,4 km/h (5 Bft) 89,58 %
29.03.2016 04:12 5,7 C 5,6 C 3,9 C 92 % 15 lf 1001,6 hPa 0,0 l/m 0 min 0 min 0 W/m 29,3 km/h (5 Bft) 95,74 %
29.03.2016 04:14 5,7 C 5,6 C 3,9 C 92 % 15 lf 1001,5 hPa 0,0 l/m 0 min 0 min 0 W/m 29,3 km/h (5 Bft) 93,62 %
29.03.2016 04:16 5,7 C 5,6 C 3,9 C 92 % 14 lf 1001,5 hPa 0,0 l/m 0 min 0 min 0 W/m 35,6 km/h (5 Bft) 93,48 %
29.03.2016 04:18 5,8 C 5,6 C 3,9 C 92 % 14 lf 1001,7 hPa 0,0 l/m 0 min 0 min 0 W/m 25,1 km/h (4 Bft) 95,74 %
29.03.2016 04:20 5,8 C 5,6 C 3,9 C 91 % 13 lf 1001,7 hPa 0,0 l/m 0 min 2 min 0 W/m 35,6 km/h (5 Bft) 91,49 %
29.03.2016 04:22 5,8 C 5,6 C 3,9 C 91 % 12 lf 1001,7 hPa 0,0 l/m 0 min 2 min 0 W/m 33,5 km/h (5 Bft) 95,74 %
29.03.2016 04:24 5,8 C 5,6 C 3,9 C 91 % 12 lf 1001,6 hPa 0,0 l/m 0 min 0 min 0 W/m 27,2 km/h (4 Bft) 93,62 %
29.03.2016 04:26 5,8 C 5,6 C 3,9 C 91 % 11 lf 1001,6 hPa 0,0 l/m 0 min 0 min 0 W/m 37,7 km/h (5 Bft) 89,36 %
29.03.2016 04:28 5,8 C 5,6 C 3,9 C 91 % 11 lf 1001,7 hPa 0,0 l/m 0 min 0 min 0 W/m 27,2 km/h (4 Bft) 97,83 %
29.03.2016 04:30 5,8 C 5,6 C 3,9 C 91 % 10 lf 1001,7 hPa 0,0 l/m 0 min 0 min 0 W/m 31,4 km/h (5 Bft) 97,87 %
29.03.2016 04:32 5,8 C 5,6 C 3,9 C 91 % 10 lf 1001,6 hPa 0,0 l/m 0 min 0 min 0 W/m 25,1 km/h (4 Bft) 97,87 %
29.03.2016 04:34 5,8 C 5,6 C 3,9 C 91 % 9 lf 1001,6 hPa 0,0 l/m 0 min 0 min 0 W/m 23,0 km/h (4 Bft) 97,87 %
29.03.2016 04:36 5,8 C 5,6 C 3,9 C 90 % 9 lf 1001,7 hPa 0,0 l/m 0 min 0 min 0 W/m 27,2 km/h (4 Bft) 97,87 %
29.03.2016 04:38 5,8 C 5,6 C 3,9 C 90 % 7 lf 1001,7 hPa 0,0 l/m 0 min 0 min 0 W/m 35,6 km/h (5 Bft) 97,87 %
29.03.2016 04:40 5,9 C 5,6 C 3,9 C 90 % 6 lf 1001,7 hPa 0,0 l/m 0 min 0 min 0 W/m 29,3 km/h (5 Bft) 95,65 %
29.03.2016 04:42 5,9 C 5,6 C 3,9 C 90 % 5 lf 1001,8 hPa 0,0 l/m 0 min 0 min 0 W/m 37,7 km/h (5 Bft) 97,87 %
29.03.2016 04:44 5,9 C 5,6 C 3,9 C 90 % 4 lf 1001,8 hPa 0,0 l/m 0 min 0 min 0 W/m 39,7 km/h (6 Bft) 95,74 %
29.03.2016 04:46 5,9 C 5,6 C 3,9 C 90 % 4 lf 1001,8 hPa 0,0 l/m 0 min 2 min 0 W/m 35,6 km/h (5 Bft) 93,62 %
29.03.2016 04:48 5,9 C 5,6 C 3,9 C 90 % 3 lf 1001,8 hPa 0,0 l/m 0 min 0 min 0 W/m 35,6 km/h (5 Bft) 95,74 %
29.03.2016 04:50 6,0 C 5,6 C 3,9 C 89 % 3 lf 1001,8 hPa 0,0 l/m 0 min 0 min 0 W/m 31,4 km/h (5 Bft) 97,87 %
29.03.2016 04:52 6,0 C 5,6 C 3,9 C 89 % 2 lf 1001,9 hPa 0,0 l/m 0 min 0 min 0 W/m 37,7 km/h (5 Bft) 97,83 %
29.03.2016 04:54 6,0 C 5,6 C 3,9 C 89 % 1 lf 1001,8 hPa 0,0 l/m 0 min 0 min 0 W/m 27,2 km/h (4 Bft) 97,87 %
29.03.2016 04:56 6,1 C 5,6 C 3,9 C 89 % 1 lf 1001,9 hPa 0,0 l/m 0 min 0 min 0 W/m 27,2 km/h (4 Bft) 100,00 %
29.03.2016 04:58 6,1 C 5,6 C 3,9 C 89 % 0 lf 1002,0 hPa 0,0 l/m 0 min 0 min 0 W/m 37,7 km/h (5 Bft) 97,87 %
29.03.2016 05:00 6,1 C 5,6 C 3,9 C 89 % 0 lf 1001,9 hPa 0,0 l/m 0 min 0 min 0 W/m 37,7 km/h (5 Bft) 100,00 %
29.03.2016 05:02 6,1 C 5,6 C 3,9 C 88 % 0 lf 1001,9 hPa 0,0 l/m 0 min 0 min 0 W/m 23,0 km/h (4 Bft) 97,87 %
29.03.2016 05:04 6,1 C 5,6 C 3,9 C 88 % 0 lf 1002,0 hPa 0,0 l/m 0 min 0 min 0 W/m 23,0 km/h (4 Bft) 100,00 %
29.03.2016 05:06 6,1 C 5,6 C 3,9 C 88 % 0 lf 1001,8 hPa 0,0 l/m 0 min 0 min 0 W/m 33,5 km/h (5 Bft) 100,00 %
29.03.2016 05:08 6,1 C 5,6 C 3,9 C 88 % 0 lf 1002,0 hPa 0,0 l/m 0 min 0 min 0 W/m 25,1 km/h (4 Bft) 97,87 %
29.03.2016 05:10 6,2 C 5,6 C 3,9 C 88 % 0 lf 1001,9 hPa 0,0 l/m 0 min 0 min 0 W/m 37,7 km/h (5 Bft) 97,87 %
29.03.2016 05:12 6,2 C 5,6 C 3,9 C 88 % 0 lf 1002,0 hPa 0,0 l/m 0 min 0 min 0 W/m 35,6 km/h (5 Bft) 95,74 %
29.03.2016 05:14 6,2 C 5,6 C 3,9 C 88 % 0 lf 1002,0 hPa 0,0 l/m 0 min 0 min 0 W/m 41,8 km/h (6 Bft) 100,00 %
29.03.2016 05:16 6,2 C 5,6 C 3,9 C 88 % 0 lf 1002,0 hPa 0,0 l/m 0 min 0 min 0 W/m 29,3 km/h (5 Bft) 97,83 %
29.03.2016 05:18 6,2 C 5,6 C 3,9 C 87 % 0 lf 1002,2 hPa 0,0 l/m 0 min 0 min 0 W/m 37,7 km/h (5 Bft) 100,00 %
29.03.2016 05:20 6,2 C 5,6 C 4,4 C 87 % 0 lf 1002,1 hPa 0,0 l/m 0 min 0 min 0 W/m 37,7 km/h (5 Bft) 95,74 %
29.03.2016 05:22 6,2 C 5,6 C 4,4 C 87 % 0 lf 1002,1 hPa 0,0 l/m 0 min 0 min 0 W/m 33,5 km/h (5 Bft) 100,00 %
29.03.2016 05:24 6,3 C 5,6 C 4,4 C 87 % 0 lf 1002,1 hPa 0,0 l/m 0 min 0 min 0 W/m 43,9 km/h (6 Bft) 100,00 %
29.03.2016 05:26 6,3 C 5,6 C 4,4 C 87 % 0 lf 1002,1 hPa 0,0 l/m 0 min 0 min 0 W/m 35,6 km/h (5 Bft) 100,00 %
29.03.2016 05:28 6,3 C 5,6 C 4,4 C 87 % 0 lf 1002,1 hPa 0,0 l/m 0 min 0 min 0 W/m 35,6 km/h (5 Bft) 95,74 %
29.03.2016 05:30 6,3 C 5,6 C 4,4 C 87 % 0 lf 1002,1 hPa 0,0 l/m 0 min 0 min 0 W/m 29,3 km/h (5 Bft) 97,87 %
29.03.2016 05:32 6,3 C 5,6 C 4,4 C 87 % 0 lf 1002,1 hPa 0,0 l/m 0 min 0 min 0 W/m 27,2 km/h (4 Bft) 97,87 %
29.03.2016 05:34 6,3 C 5,6 C 4,4 C 87 % 0 lf 1002,2 hPa 0,0 l/m 0 min 0 min 0 W/m 29,3 km/h (5 Bft) 97,87 %
29.03.2016 05:36 6,3 C 5,6 C 4,4 C 87 % 0 lf 1002,1 hPa 0,0 l/m 0 min 0 min 0 W/m 20,9 km/h (4 Bft) 91,49 %
29.03.2016 05:38 6,3 C 5,6 C 4,4 C 87 % 0 lf 1002,2 hPa 0,0 l/m 0 min 0 min 0 W/m 20,9 km/h (4 Bft) 97,83 %
29.03.2016 05:40 6,3 C 5,6 C 5,0 C 87 % 1 lf 1002,2 hPa 0,0 l/m 0 min 0 min 0 W/m 33,5 km/h (5 Bft) 97,87 %
29.03.2016 05:42 6,3 C 5,6 C 4,4 C 87 % 1 lf 1002,1 hPa 0,0 l/m 0 min 2 min 0 W/m 29,3 km/h (5 Bft) 97,87 %
29.03.2016 05:44 6,4 C 5,6 C 5,0 C 87 % 0 lf 1002,3 hPa 0,0 l/m 0 min 2 min 0 W/m 31,4 km/h (5 Bft) 93,62 %
29.03.2016 05:46 6,4 C 5,6 C 5,0 C 87 % 0 lf 1002,3 hPa 0,0 l/m 0 min 2 min 0 W/m 35,6 km/h (5 Bft) 91,49 %
29.03.2016 05:48 6,4 C 5,6 C 5,0 C 87 % 0 lf 1002,3 hPa 0,0 l/m 0 min 0 min 0 W/m 33,5 km/h (5 Bft) 95,74 %
29.03.2016 05:50 6,4 C 5,6 C 5,0 C 87 % 0 lf 1002,4 hPa 0,0 l/m 0 min 0 min 0 W/m 23,0 km/h (4 Bft) 95,65 %
29.03.2016 05:52 6,4 C 5,6 C 5,0 C 87 % 0 lf 1002,4 hPa 0,0 l/m 0 min 0 min 0 W/m 29,3 km/h (5 Bft) 93,62 %
29.03.2016 05:54 6,4 C 6,1 C 5,0 C 87 % 0 lf 1002,4 hPa 0,0 l/m 0 min 0 min 0 W/m 27,2 km/h (4 Bft) 95,74 %
29.03.2016 05:56 6,4 C 6,1 C 5,0 C 87 % 0 lf 1002,4 hPa 0,0 l/m 0 min 0 min 0 W/m 27,2 km/h (4 Bft) 93,62 %
29.03.2016 05:58 6,4 C 6,1 C 5,0 C 87 % 0 lf 1002,4 hPa 0,0 l/m 0 min 0 min 0 W/m 35,6 km/h (5 Bft) 93,62 %
29.03.2016 06:00 6,4 C 6,1 C 5,0 C 87 % 0 lf 1002,4 hPa 0,0 l/m 0 min 0 min 0 W/m 33,5 km/h (5 Bft) 93,62 %
29.03.2016 06:02 6,4 C 6,1 C 5,0 C 87 % 0 lf 1002,6 hPa 0,0 l/m 0 min 0 min 0 W/m 20,9 km/h (4 Bft) 95,65 %
29.03.2016 06:04 6,4 C 6,1 C 5,0 C 87 % 0 lf 1002,6 hPa 0,0 l/m 0 min 0 min 0 W/m 31,4 km/h (5 Bft) 93,75 %
29.03.2016 06:06 6,4 C 6,1 C 5,0 C 86 % 0 lf 1002,6 hPa 0,0 l/m 0 min 0 min 0 W/m 39,7 km/h (6 Bft) 95,74 %
29.03.2016 06:08 6,4 C 6,1 C 5,0 C 86 % 2 lf 1002,7 hPa 0,0 l/m 0 min 0 min 0 W/m 33,5 km/h (5 Bft) 93,62 %
29.03.2016 06:10 6,4 C 6,1 C 5,0 C 86 % 7 lf 1002,6 hPa 0,0 l/m 0 min 2 min 0 W/m 33,5 km/h (5 Bft) 93,62 %
29.03.2016 06:12 6,4 C 6,1 C 5,0 C 86 % 4 lf 1002,6 hPa 0,0 l/m 0 min 2 min 0 W/m 29,3 km/h (5 Bft) 97,87 %
29.03.2016 06:14 6,4 C 6,1 C 5,0 C 86 % 3 lf 1002,7 hPa 0,0 l/m 0 min 0 min 0 W/m 31,4 km/h (5 Bft) 97,83 %
29.03.2016 06:16 6,4 C 6,1 C 4,4 C 86 % 2 lf 1002,7 hPa 0,0 l/m 0 min 0 min 0 W/m 18,8 km/h (3 Bft) 95,74 %
29.03.2016 06:18 6,4 C 6,1 C 4,4 C 86 % 1 lf 1002,7 hPa 0,0 l/m 0 min 0 min 0 W/m 29,3 km/h (5 Bft) 100,00 %
29.03.2016 06:20 6,4 C 6,7 C 5,0 C 86 % 0 lf 1002,7 hPa 0,0 l/m 0 min 0 min 0 W/m 29,3 km/h (5 Bft) 100,00 %
29.03.2016 06:22 6,4 C 6,7 C 5,0 C 86 % 0 lf 1002,7 hPa 0,0 l/m 0 min 0 min 0 W/m 31,4 km/h (5 Bft) 100,00 %
29.03.2016 06:24 6,4 C 6,7 C 5,0 C 86 % 0 lf 1002,7 hPa 0,0 l/m 0 min 0 min 0 W/m 18,8 km/h (3 Bft) 100,00 %
29.03.2016 06:26 6,4 C 6,7 C 5,0 C 86 % 0 lf 1002,7 hPa 0,0 l/m 0 min 0 min 0 W/m 27,2 km/h (4 Bft) 97,87 %
29.03.2016 06:28 6,4 C 6,7 C 5,0 C 86 % 0 lf 1002,7 hPa 0,0 l/m 0 min 0 min 0 W/m 27,2 km/h (4 Bft) 95,74 %
29.03.2016 06:30 6,4 C 6,7 C 5,0 C 86 % 0 lf 1002,7 hPa 0,0 l/m 0 min 0 min 0 W/m 31,4 km/h (5 Bft) 97,87 %
29.03.2016 06:32 6,4 C 6,7 C 5,0 C 86 % 0 lf 1002,7 hPa 0,0 l/m 0 min 0 min 0 W/m 37,7 km/h (5 Bft) 97,87 %
29.03.2016 06:34 6,4 C 6,7 C 5,0 C 86 % 0 lf 1002,7 hPa 0,0 l/m 0 min 0 min 0 W/m 25,1 km/h (4 Bft) 95,74 %
29.03.2016 06:36 6,5 C 6,7 C 5,0 C 86 % 0 lf 1002,8 hPa 0,0 l/m 0 min 0 min 0 W/m 23,0 km/h (4 Bft) 97,83 %
29.03.2016 06:38 6,5 C 6,7 C 5,0 C 86 % 0 lf 1002,8 hPa 0,0 l/m 0 min 0 min 0 W/m 29,3 km/h (5 Bft) 97,87 %
29.03.2016 06:40 6,5 C 6,7 C 5,0 C 86 % 0 lf 1002,8 hPa 0,0 l/m 0 min 0 min 0 W/m 25,1 km/h (4 Bft) 97,87 %
29.03.2016 06:42 6,5 C 6,7 C 5,0 C 85 % 0 lf 1002,8 hPa 0,0 l/m 0 min 0 min 0 W/m 27,2 km/h (4 Bft) 97,87 %
29.03.2016 06:44 6,5 C 6,7 C 5,0 C 85 % 0 lf 1002,8 hPa 0,0 l/m 0 min 0 min 0 W/m 31,4 km/h (5 Bft) 91,49 %
29.03.2016 06:46 6,6 C 6,7 C 5,0 C 85 % 0 lf 1002,8 hPa 0,0 l/m 0 min 0 min 0 W/m 31,4 km/h (5 Bft) 97,87 %
29.03.2016 06:48 6,6 C 6,7 C 5,0 C 85 % 0 lf 1002,8 hPa 0,0 l/m 0 min 0 min 0 W/m 25,1 km/h (4 Bft) 97,83 %
29.03.2016 06:50 6,6 C 6,7 C 5,0 C 85 % 0 lf 1002,8 hPa 0,0 l/m 0 min 0 min 0 W/m 35,6 km/h (5 Bft) 97,92 %
29.03.2016 06:52 6,6 C 6,7 C 5,0 C 85 % 0 lf 1002,8 hPa 0,0 l/m 0 min 0 min 0 W/m 23,0 km/h (4 Bft) 97,83 %
29.03.2016 06:54 6,6 C 6,7 C 5,0 C 85 % 0 lf 1002,8 hPa 0,0 l/m 0 min 0 min 0 W/m 37,7 km/h (5 Bft) 97,87 %
29.03.2016 06:56 6,6 C 6,7 C 5,0 C 85 % 0 lf 1002,8 hPa 0,0 l/m 0 min 0 min 0 W/m 29,3 km/h (5 Bft) 97,87 %
29.03.2016 06:58 6,6 C 6,7 C 5,0 C 85 % 0 lf 1002,8 hPa 0,0 l/m 0 min 0 min 0 W/m 25,1 km/h (4 Bft) 95,74 %
29.03.2016 07:00 6,6 C 6,7 C 5,0 C 85 % 0 lf 1002,9 hPa 0,0 l/m 0 min 0 min 0 W/m 33,5 km/h (5 Bft) 91,49 %
29.03.2016 07:02 6,6 C 6,7 C 5,0 C 85 % 0 lf 1002,9 hPa 0,0 l/m 0 min 0 min 0 W/m 33,5 km/h (5 Bft) 95,74 %
29.03.2016 07:04 6,6 C 6,7 C 5,0 C 84 % 0 lf 1002,9 hPa 0,0 l/m 0 min 0 min 0 W/m 29,3 km/h (5 Bft) 95,65 %
29.03.2016 07:06 6,6 C 6,7 C 5,0 C 84 % 0 lf 1002,9 hPa 0,0 l/m 0 min 0 min 0 W/m 25,1 km/h (4 Bft) 97,87 %
29.03.2016 07:08 6,6 C 6,7 C 5,0 C 84 % 0 lf 1003,0 hPa 0,0 l/m 0 min 0 min 0 W/m 29,3 km/h (5 Bft) 95,74 %
29.03.2016 07:10 6,7 C 6,7 C 5,0 C 84 % 0 lf 1002,9 hPa 0,0 l/m 0 min 0 min 0 W/m 35,6 km/h (5 Bft) 93,62 %
29.03.2016 07:12 6,7 C 6,7 C 5,6 C 84 % 0 lf 1003,1 hPa 0,0 l/m 0 min 0 min 0 W/m 25,1 km/h (4 Bft) 95,74 %
29.03.2016 07:14 6,7 C 6,7 C 5,6 C 84 % 2 lf 1003,2 hPa 0,0 l/m 0 min 0 min 0 W/m 41,8 km/h (6 Bft) 93,48 %
29.03.2016 07:16 6,7 C 6,7 C 5,0 C 84 % 3 lf 1003,3 hPa 0,0 l/m 0 min 2 min 0 W/m 41,8 km/h (6 Bft) 93,62 %
29.03.2016 07:18 6,7 C 6,7 C 5,0 C 84 % 3 lf 1003,4 hPa 0,0 l/m 0 min 2 min 0 W/m 35,6 km/h (5 Bft) 93,62 %
29.03.2016 07:20 6,7 C 6,7 C 5,0 C 84 % 3 lf 1003,5 hPa 0,0 l/m 0 min 2 min 0 W/m 48,1 km/h (6 Bft) 93,62 %
29.03.2016 07:22 6,7 C 6,7 C 5,0 C 84 % 4 lf 1003,4 hPa 0,0 l/m 0 min 2 min 3 W/m 33,5 km/h (5 Bft) 93,62 %
29.03.2016 07:24 6,7 C 6,1 C 5,0 C 85 % 9 lf 1003,6 hPa 0,0 l/m 0 min 2 min 5 W/m 39,7 km/h (6 Bft) 95,74 %
29.03.2016 07:26 6,7 C 6,1 C 5,0 C 85 % 8 lf 1003,5 hPa 0,0 l/m 0 min 0 min 5 W/m 41,8 km/h (6 Bft) 91,30 %
29.03.2016 07:28 6,6 C 6,1 C 5,0 C 85 % 4 lf 1003,5 hPa 0,0 l/m 0 min 0 min 7 W/m 48,1 km/h (6 Bft) 93,62 %
29.03.2016 07:30 6,6 C 6,1 C 5,0 C 85 % 2 lf 1003,5 hPa 0,0 l/m 0 min 0 min 7 W/m 31,4 km/h (5 Bft) 93,62 %
29.03.2016 07:32 6,6 C 6,7 C 5,0 C 85 % 1 lf 1003,5 hPa 0,0 l/m 0 min 0 min 9 W/m 31,4 km/h (5 Bft) 93,62 %
29.03.2016 07:34 6,6 C 6,7 C 5,0 C 85 % 0 lf 1003,6 hPa 0,0 l/m 0 min 2 min 11 W/m 29,3 km/h (5 Bft) 89,36 %
29.03.2016 07:36 6,5 C 6,7 C 5,0 C 86 % 0 lf 1003,6 hPa 0,0 l/m 0 min 2 min 12 W/m 39,7 km/h (6 Bft) 91,49 %
29.03.2016 07:38 6,5 C 6,7 C 5,0 C 86 % 0 lf 1003,6 hPa 0,0 l/m 0 min 2 min 12 W/m 33,5 km/h (5 Bft) 93,48 %
29.03.2016 07:40 6,4 C 6,7 C 5,0 C 86 % 0 lf 1003,6 hPa 0,0 l/m 0 min 0 min 12 W/m 35,6 km/h (5 Bft) 95,74 %
29.03.2016 07:42 6,4 C 6,7 C 5,0 C 86 % 0 lf 1003,6 hPa 0,0 l/m 0 min 0 min 12 W/m 27,2 km/h (4 Bft) 93,62 %
29.03.2016 07:44 6,4 C 6,7 C 5,0 C 86 % 0 lf 1003,7 hPa 0,0 l/m 0 min 0 min 14 W/m 39,7 km/h (6 Bft) 95,74 %
29.03.2016 07:46 6,4 C 6,7 C 5,0 C 86 % 0 lf 1003,7 hPa 0,0 l/m 0 min 2 min 14 W/m 35,6 km/h (5 Bft) 93,62 %
29.03.2016 07:48 6,4 C 6,7 C 5,0 C 86 % 0 lf 1003,6 hPa 0,0 l/m 0 min 0 min 14 W/m 39,7 km/h (6 Bft) 95,74 %
29.03.2016 07:50 6,4 C 6,7 C 5,0 C 86 % 0 lf 1003,7 hPa 0,0 l/m 0 min 0 min 17 W/m 33,5 km/h (5 Bft) 95,65 %
29.03.2016 07:52 6,4 C 6,7 C 5,0 C 86 % 0 lf 1003,6 hPa 0,0 l/m 0 min 0 min 21 W/m 31,4 km/h (5 Bft) 91,49 %
29.03.2016 07:54 6,4 C 6,7 C 5,6 C 86 % 0 lf 1003,6 hPa 0,0 l/m 0 min 0 min 26 W/m 35,6 km/h (5 Bft) 91,49 %
29.03.2016 07:56 6,4 C 6,7 C 5,6 C 86 % 0 lf 1003,9 hPa 0,0 l/m 0 min 0 min 26 W/m 33,5 km/h (5 Bft) 89,36 %
29.03.2016 07:58 6,4 C 6,7 C 5,6 C 86 % 0 lf 1003,8 hPa 0,0 l/m 0 min 0 min 30 W/m 33,5 km/h (5 Bft) 95,74 %
29.03.2016 08:00 6,5 C 7,2 C 5,6 C 86 % 0 lf 1003,9 hPa 0,0 l/m 0 min 0 min 39 W/m 37,7 km/h (5 Bft) 97,87 %
29.03.2016 08:02 6,5 C 7,2 C 5,6 C 86 % 0 lf 1003,9 hPa 0,0 l/m 0 min 0 min 46 W/m 29,3 km/h (5 Bft) 93,48 %
29.03.2016 08:04 6,6 C 7,2 C 5,6 C 86 % 0 lf 1003,9 hPa 0,0 l/m 0 min 0 min 54 W/m 29,3 km/h (5 Bft) 95,74 %
29.03.2016 08:06 6,6 C 7,2 C 5,6 C 85 % 0 lf 1003,9 hPa 0,0 l/m 0 min 0 min 53 W/m 39,7 km/h (6 Bft) 93,62 %
29.03.2016 08:08 6,6 C 7,2 C 5,6 C 85 % 0 lf 1003,9 hPa 0,0 l/m 0 min 0 min 48 W/m 23,0 km/h (4 Bft) 97,87 %
29.03.2016 08:10 6,6 C 7,2 C 5,6 C 85 % 0 lf 1004,0 hPa 0,0 l/m 0 min 0 min 53 W/m 35,6 km/h (5 Bft) 97,87 %
29.03.2016 08:12 6,7 C 7,2 C 5,6 C 85 % 0 lf 1004,0 hPa 0,0 l/m 0 min 0 min 59 W/m 39,7 km/h (6 Bft) 93,62 %
29.03.2016 08:14 6,7 C 7,2 C 5,6 C 85 % 0 lf 1003,9 hPa 0,0 l/m 0 min 0 min 61 W/m 33,5 km/h (5 Bft) 97,83 %
29.03.2016 08:16 6,7 C 7,2 C 5,6 C 85 % 0 lf 1003,9 hPa 0,0 l/m 0 min 0 min 55 W/m 43,9 km/h (6 Bft) 95,74 %
29.03.2016 08:18 6,7 C 7,2 C 5,6 C 85 % 0 lf 1004,1 hPa 0,0 l/m 0 min 0 min 41 W/m 35,6 km/h (5 Bft) 97,87 %
29.03.2016 08:20 6,8 C 7,2 C 5,6 C 84 % 1 lf 1004,1 hPa 0,0 l/m 0 min 2 min 24 W/m 33,5 km/h (5 Bft) 95,74 %
29.03.2016 08:22 6,8 C 7,2 C 5,6 C 84 % 6 lf 1004,1 hPa 0,0 l/m 0 min 2 min 18 W/m 37,7 km/h (5 Bft) 97,87 %
29.03.2016 08:24 6,8 C 6,7 C 5,0 C 84 % 12 lf 1004,2 hPa 0,0 l/m 0 min 2 min 16 W/m 31,4 km/h (5 Bft) 97,83 %
29.03.2016 08:26 6,8 C 6,7 C 5,0 C 84 % 10 lf 1004,1 hPa 0,0 l/m 0 min 2 min 18 W/m 29,3 km/h (5 Bft) 95,74 %
29.03.2016 08:28 6,8 C 6,7 C 5,0 C 84 % 6 lf 1004,2 hPa 0,0 l/m 0 min 2 min 19 W/m 41,8 km/h (6 Bft) 97,87 %
29.03.2016 08:30 6,8 C 6,7 C 5,0 C 84 % 3 lf 1004,2 hPa 0,0 l/m 0 min 2 min 24 W/m 41,8 km/h (6 Bft) 95,74 %
29.03.2016 08:32 6,7 C 6,7 C 5,0 C 84 % 1 lf 1004,3 hPa 0,0 l/m 0 min 2 min 25 W/m 41,8 km/h (6 Bft) 97,87 %
29.03.2016 08:34 6,7 C 7,2 C 5,6 C 84 % 0 lf 1004,3 hPa 0,0 l/m 0 min 2 min 25 W/m 39,7 km/h (6 Bft) 97,87 %
29.03.2016 08:36 6,7 C 7,2 C 5,6 C 84 % 0 lf 1004,4 hPa 0,0 l/m 0 min 0 min 24 W/m 27,2 km/h (4 Bft) 93,48 %
29.03.2016 08:38 6,7 C 7,2 C 5,6 C 84 % 0 lf 1004,3 hPa 0,0 l/m 0 min 0 min 31 W/m 29,3 km/h (5 Bft) 97,87 %
29.03.2016 08:40 6,7 C 7,2 C 5,6 C 84 % 1 lf 1004,5 hPa 0,0 l/m 0 min 2 min 37 W/m 37,7 km/h (5 Bft) 97,87 %
29.03.2016 08:42 6,7 C 7,2 C 5,6 C 84 % 3 lf 1004,5 hPa 0,0 l/m 0 min 2 min 45 W/m 46,0 km/h (6 Bft) 93,62 %
29.03.2016 08:44 6,8 C 7,2 C 5,6 C 84 % 4 lf 1004,5 hPa 0,0 l/m 0 min 2 min 51 W/m 29,3 km/h (5 Bft) 93,62 %
29.03.2016 08:46 6,8 C 6,7 C 5,6 C 84 % 11 lf 1004,5 hPa 0,0 l/m 0 min 2 min 61 W/m 35,6 km/h (5 Bft) 97,87 %
29.03.2016 08:48 6,8 C 6,7 C 5,0 C 85 % 13 lf 1004,4 hPa 0,0 l/m 0 min 2 min 65 W/m 43,9 km/h (6 Bft) 97,83 %
29.03.2016 08:50 6,7 C 6,7 C 5,0 C 85 % 15 lf 1004,5 hPa 0,0 l/m 0 min 2 min 73 W/m 50,2 km/h (7 Bft) 97,87 %
29.03.2016 08:52 6,7 C 6,7 C 5,0 C 85 % 15 lf 1004,5 hPa 0,0 l/m 0 min 2 min 67 W/m 43,9 km/h (6 Bft) 100,00 %
29.03.2016 08:54 6,7 C 6,7 C 5,0 C 85 % 15 lf 1004,5 hPa 0,0 l/m 0 min 2 min 75 W/m 31,4 km/h (5 Bft) 100,00 %
29.03.2016 08:56 6,7 C 6,7 C 5,0 C 85 % 15 lf 1004,6 hPa 0,0 l/m 0 min 2 min 92 W/m 35,6 km/h (5 Bft) 100,00 %
29.03.2016 08:58 6,7 C 6,7 C 5,0 C 85 % 15 lf 1004,5 hPa 0,0 l/m 0 min 2 min 113 W/m 25,1 km/h (4 Bft) 100,00 %
29.03.2016 09:00 6,7 C 7,2 C 5,6 C 85 % 15 lf 1004,5 hPa 0,0 l/m 2 min 2 min 144 W/m 31,4 km/h (5 Bft) 97,83 %
29.03.2016 09:02 6,7 C 7,2 C 5,6 C 86 % 15 lf 1004,5 hPa 0,0 l/m 2 min 2 min 166 W/m 20,9 km/h (4 Bft) 98,00 %
29.03.2016 09:04 6,7 C 7,2 C 5,6 C 86 % 15 lf 1004,6 hPa 0,0 l/m 2 min 2 min 154 W/m 31,4 km/h (5 Bft) 97,87 %
29.03.2016 09:06 6,8 C 7,2 C 5,6 C 86 % 15 lf 1004,6 hPa 0,0 l/m 0 min 2 min 119 W/m 43,9 km/h (6 Bft) 97,87 %
29.03.2016 09:08 6,8 C 7,2 C 5,0 C 86 % 15 lf 1004,7 hPa 0,0 l/m 0 min 2 min 89 W/m 37,7 km/h (5 Bft) 100,00 %
29.03.2016 09:10 6,8 C 7,2 C 5,0 C 86 % 15 lf 1004,7 hPa 0,0 l/m 0 min 2 min 82 W/m 29,3 km/h (5 Bft) 97,87 %
29.03.2016 09:12 6,8 C 7,2 C 5,0 C 86 % 15 lf 1004,6 hPa 0,0 l/m 0 min 2 min 79 W/m 31,4 km/h (5 Bft) 95,74 %
29.03.2016 09:14 6,8 C 6,7 C 5,0 C 86 % 15 lf 1004,7 hPa 0,2 l/m 0 min 2 min 84 W/m 31,4 km/h (5 Bft) 97,87 %
29.03.2016 09:16 6,8 C 6,7 C 5,0 C 86 % 15 lf 1004,8 hPa 0,0 l/m 0 min 2 min 69 W/m 39,7 km/h (6 Bft) 97,87 %
29.03.2016 09:18 6,8 C 6,7 C 5,0 C 86 % 15 lf 1004,7 hPa 0,0 l/m 0 min 2 min 52 W/m 39,7 km/h (6 Bft) 95,65 %
29.03.2016 09:20 6,8 C 6,7 C 4,4 C 86 % 15 lf 1004,7 hPa 0,0 l/m 0 min 2 min 58 W/m 33,5 km/h (5 Bft) 97,87 %
29.03.2016 09:22 6,8 C 7,2 C 4,4 C 86 % 15 lf 1004,8 hPa 0,0 l/m 0 min 2 min 68 W/m 43,9 km/h (6 Bft) 97,87 %
29.03.2016 09:24 6,8 C 7,2 C 5,0 C 85 % 15 lf 1004,8 hPa 0,0 l/m 0 min 2 min 76 W/m 29,3 km/h (5 Bft) 95,74 %
29.03.2016 09:26 6,8 C 7,2 C 5,0 C 85 % 15 lf 1004,9 hPa 0,0 l/m 0 min 2 min 85 W/m 37,7 km/h (5 Bft) 93,62 %
29.03.2016 09:28 6,8 C 7,2 C 5,0 C 85 % 15 lf 1004,9 hPa 0,0 l/m 0 min 2 min 97 W/m 31,4 km/h (5 Bft) 95,74 %
29.03.2016 09:30 6,9 C 7,2 C 5,0 C 85 % 15 lf 1004,9 hPa 0,0 l/m 0 min 2 min 102 W/m 46,0 km/h (6 Bft) 97,87 %
29.03.2016 09:32 6,9 C 7,2 C 5,0 C 85 % 15 lf 1004,9 hPa 0,0 l/m 0 min 2 min 111 W/m 43,9 km/h (6 Bft) 95,65 %
29.03.2016 09:34 6,9 C 7,2 C 5,0 C 85 % 15 lf 1004,8 hPa 0,0 l/m 0 min 2 min 117 W/m 37,7 km/h (5 Bft) 95,74 %
29.03.2016 09:36 6,9 C 7,8 C 5,6 C 85 % 15 lf 1004,9 hPa 0,0 l/m 0 min 2 min 124 W/m 41,8 km/h (6 Bft) 97,87 %
29.03.2016 09:38 7,0 C 7,8 C 5,6 C 85 % 15 lf 1004,9 hPa 0,0 l/m 0 min 2 min 120 W/m 37,7 km/h (5 Bft) 97,87 %
29.03.2016 09:40 7,0 C 7,8 C 5,6 C 84 % 14 lf 1004,9 hPa 0,0 l/m 0 min 2 min 114 W/m 52,3 km/h (7 Bft) 97,87 %
29.03.2016 09:42 7,1 C 7,8 C 6,1 C 84 % 12 lf 1005,1 hPa 0,0 l/m 0 min 2 min 142 W/m 46,0 km/h (6 Bft) 95,65 %
29.03.2016 09:44 7,1 C 8,3 C 6,1 C 83 % 4 lf 1005,0 hPa 0,0 l/m 0 min 2 min 167 W/m 50,2 km/h (7 Bft) 97,87 %
29.03.2016 09:46 7,2 C 8,3 C 6,1 C 83 % 2 lf 1005,1 hPa 0,0 l/m 0 min 2 min 158 W/m 41,8 km/h (6 Bft) 95,74 %
29.03.2016 09:48 7,2 C 8,3 C 6,7 C 83 % 0 lf 1005,2 hPa 0,0 l/m 0 min 2 min 142 W/m 41,8 km/h (6 Bft) 95,74 %
29.03.2016 09:50 7,3 C 8,3 C 6,7 C 83 % 0 lf 1005,1 hPa 0,0 l/m 0 min 2 min 132 W/m 54,4 km/h (7 Bft) 97,87 %
29.03.2016 09:52 7,3 C 8,9 C 6,7 C 82 % 0 lf 1005,1 hPa 0,0 l/m 0 min 2 min 158 W/m 27,2 km/h (4 Bft) 97,87 %
29.03.2016 09:54 7,4 C 8,9 C 6,7 C 82 % 1 lf 1005,2 hPa 0,0 l/m 0 min 2 min 193 W/m 50,2 km/h (7 Bft) 97,83 %
29.03.2016 09:56 7,4 C 8,9 C 7,2 C 82 % 2 lf 1005,2 hPa 0,0 l/m 2 min 2 min 218 W/m 56,5 km/h (7 Bft) 97,87 %
29.03.2016 09:58 7,4 C 8,9 C 7,2 C 83 % 3 lf 1005,3 hPa 0,0 l/m 2 min 2 min 206 W/m 43,9 km/h (6 Bft) 100,00 %
29.03.2016 10:00 7,5 C 9,4 C 7,8 C 83 % 2 lf 1005,3 hPa 0,0 l/m 2 min 2 min 300 W/m 37,7 km/h (5 Bft) 97,87 %
29.03.2016 10:02 7,6 C 10,0 C 7,8 C 83 % 0 lf 1005,2 hPa 0,0 l/m 2 min 2 min 341 W/m 35,6 km/h (5 Bft) 100,00 %
29.03.2016 10:04 7,7 C 11,1 C 8,9 C 83 % 3 lf 1005,2 hPa 0,0 l/m 2 min 2 min 392 W/m 39,7 km/h (6 Bft) 93,62 %
29.03.2016 10:06 7,7 C 10,6 C 8,3 C 83 % 11 lf 1005,3 hPa 0,0 l/m 2 min 2 min 431 W/m 41,8 km/h (6 Bft) 100,00 %
29.03.2016 10:08 7,8 C 10,0 C 7,8 C 83 % 13 lf 1005,4 hPa 0,0 l/m 2 min 2 min 284 W/m 37,7 km/h (5 Bft) 97,87 %
29.03.2016 10:10 7,8 C 8,9 C 6,7 C 83 % 15 lf 1005,4 hPa 0,0 l/m 0 min 2 min 145 W/m 39,7 km/h (6 Bft) 97,87 %
29.03.2016 10:12 7,8 C 8,3 C 6,1 C 83 % 15 lf 1005,3 hPa 0,0 l/m 0 min 2 min 133 W/m 41,8 km/h (6 Bft) 95,74 %
29.03.2016 10:14 7,8 C 7,8 C 6,1 C 83 % 15 lf 1005,3 hPa 0,0 l/m 0 min 2 min 156 W/m 50,2 km/h (7 Bft) 97,87 %
29.03.2016 10:16 7,8 C 7,8 C 6,1 C 83 % 15 lf 1005,4 hPa 0,0 l/m 0 min 2 min 172 W/m 41,8 km/h (6 Bft) 95,74 %
29.03.2016 10:18 7,8 C 8,3 C 6,1 C 82 % 15 lf 1005,4 hPa 0,0 l/m 0 min 2 min 177 W/m 37,7 km/h (5 Bft) 97,83 %
29.03.2016 10:20 7,8 C 8,9 C 6,7 C 83 % 14 lf 1005,5 hPa 0,0 l/m 2 min 2 min 240 W/m 35,6 km/h (5 Bft) 95,74 %
29.03.2016 10:22 7,8 C 9,4 C 6,7 C 83 % 13 lf 1005,5 hPa 0,0 l/m 0 min 2 min 221 W/m 29,3 km/h (5 Bft) 95,74 %
29.03.2016 10:24 7,8 C 9,4 C 6,7 C 83 % 7 lf 1005,6 hPa 0,0 l/m 0 min 0 min 222 W/m 35,6 km/h (5 Bft) 93,62 %
29.03.2016 10:26 7,8 C 9,4 C 7,2 C 83 % 3 lf 1005,5 hPa 0,0 l/m 2 min 0 min 235 W/m 33,5 km/h (5 Bft) 97,87 %
29.03.2016 10:28 7,9 C 10,0 C 7,8 C 83 % 0 lf 1005,6 hPa 0,0 l/m 2 min 0 min 237 W/m 43,9 km/h (6 Bft) 97,87 %
29.03.2016 10:30 7,9 C 9,4 C 7,8 C 82 % 0 lf 1005,6 hPa 0,0 l/m 0 min 0 min 199 W/m 39,7 km/h (6 Bft) 95,65 %
29.03.2016 10:32 7,9 C 10,0 C 7,8 C 82 % 0 lf 1005,5 hPa 0,0 l/m 0 min 2 min 233 W/m 56,5 km/h (7 Bft) 93,62 %
29.03.2016 10:34 8,0 C 9,4 C 7,8 C 81 % 0 lf 1005,6 hPa 0,0 l/m 0 min 0 min 225 W/m 46,0 km/h (6 Bft) 97,87 %
29.03.2016 10:36 8,1 C 10,0 C 7,8 C 81 % 0 lf 1005,7 hPa 0,0 l/m 0 min 0 min 229 W/m 50,2 km/h (7 Bft) 91,49 %
29.03.2016 10:38 8,1 C 10,6 C 8,3 C 81 % 0 lf 1005,6 hPa 0,0 l/m 2 min 0 min 257 W/m 52,3 km/h (7 Bft) 95,74 %
29.03.2016 10:40 8,2 C 10,6 C 8,3 C 80 % 0 lf 1005,6 hPa 0,0 l/m 0 min 0 min 227 W/m 48,1 km/h (6 Bft) 91,49 %
29.03.2016 10:42 8,2 C 10,0 C 7,8 C 80 % 0 lf 1005,7 hPa 0,0 l/m 0 min 0 min 198 W/m 46,0 km/h (6 Bft) 91,30 %
29.03.2016 10:44 8,2 C 10,0 C 7,8 C 80 % 0 lf 1005,7 hPa 0,0 l/m 0 min 0 min 242 W/m 41,8 km/h (6 Bft) 91,49 %
29.03.2016 10:46 8,3 C 9,4 C 7,8 C 79 % 0 lf 1005,8 hPa 0,0 l/m 0 min 0 min 215 W/m 48,1 km/h (6 Bft) 93,62 %
29.03.2016 10:48 8,3 C 9,4 C 7,8 C 79 % 0 lf 1005,8 hPa 0,0 l/m 0 min 0 min 194 W/m 37,7 km/h (5 Bft) 95,74 %
29.03.2016 10:50 8,3 C 9,4 C 7,8 C 79 % 1 lf 1005,7 hPa 0,0 l/m 0 min 0 min 196 W/m 39,7 km/h (6 Bft) 91,49 %
29.03.2016 10:52 8,3 C 9,4 C 7,8 C 79 % 0 lf 1005,8 hPa 0,0 l/m 0 min 0 min 143 W/m 37,7 km/h (5 Bft) 93,62 %
29.03.2016 10:54 8,3 C 9,4 C 7,8 C 79 % 0 lf 1005,8 hPa 0,0 l/m 0 min 0 min 167 W/m 29,3 km/h (5 Bft) 97,78 %
29.03.2016 10:56 8,3 C 9,4 C 7,8 C 79 % 0 lf 1005,9 hPa 0,0 l/m 0 min 0 min 172 W/m 23,0 km/h (4 Bft) 91,49 %
29.03.2016 10:58 8,4 C 10,0 C 7,8 C 79 % 1 lf 1005,9 hPa 0,0 l/m 0 min 0 min 173 W/m 29,3 km/h (5 Bft) 93,62 %
29.03.2016 11:00 8,4 C 10,6 C 7,8 C 79 % 0 lf 1005,9 hPa 0,0 l/m 0 min 0 min 169 W/m 50,2 km/h (7 Bft) 91,49 %
29.03.2016 11:02 8,4 C 11,7 C 8,9 C 79 % 0 lf 1006,0 hPa 0,0 l/m 0 min 0 min 222 W/m 52,3 km/h (7 Bft) 91,67 %
29.03.2016 11:04 8,5 C 12,8 C 9,4 C 79 % 0 lf 1006,1 hPa 0,0 l/m 2 min 0 min 343 W/m 43,9 km/h (6 Bft) 91,30 %
29.03.2016 11:06 8,6 C 12,8 C 9,4 C 79 % 0 lf 1006,0 hPa 0,0 l/m 2 min 0 min 345 W/m 39,7 km/h (6 Bft) 95,74 %
29.03.2016 11:08 8,7 C 11,7 C 9,4 C 79 % 0 lf 1006,1 hPa 0,0 l/m 2 min 0 min 307 W/m 41,8 km/h (6 Bft) 93,62 %
29.03.2016 11:10 8,7 C 10,6 C 8,9 C 78 % 0 lf 1006,1 hPa 0,0 l/m 0 min 0 min 242 W/m 39,7 km/h (6 Bft) 93,62 %
29.03.2016 11:12 8,7 C 10,6 C 8,3 C 78 % 0 lf 1006,1 hPa 0,0 l/m 0 min 0 min 219 W/m 39,7 km/h (6 Bft) 95,74 %
29.03.2016 11:14 8,8 C 10,6 C 8,3 C 78 % 0 lf 1006,1 hPa 0,0 l/m 0 min 0 min 272 W/m 35,6 km/h (5 Bft) 89,36 %
29.03.2016 11:16 8,8 C 10,6 C 8,3 C 78 % 0 lf 1006,0 hPa 0,0 l/m 0 min 0 min 247 W/m 46,0 km/h (6 Bft) 91,49 %
29.03.2016 11:18 8,8 C 10,6 C 8,3 C 78 % 0 lf 1006,1 hPa 0,0 l/m 0 min 0 min 231 W/m 37,7 km/h (5 Bft) 95,65 %
29.03.2016 11:20 8,8 C 10,6 C 8,9 C 78 % 0 lf 1006,3 hPa 0,0 l/m 0 min 0 min 270 W/m 39,7 km/h (6 Bft) 91,49 %
29.03.2016 11:22 8,8 C 10,6 C 8,9 C 78 % 0 lf 1006,2 hPa 0,0 l/m 0 min 0 min 259 W/m 43,9 km/h (6 Bft) 95,74 %
29.03.2016 11:24 8,9 C 11,1 C 8,9 C 78 % 0 lf 1006,2 hPa 0,0 l/m 0 min 0 min 278 W/m 37,7 km/h (5 Bft) 95,74 %
29.03.2016 11:26 8,9 C 11,1 C 8,9 C 77 % 0 lf 1006,3 hPa 0,0 l/m 2 min 0 min 306 W/m 43,9 km/h (6 Bft) 91,49 %
29.03.2016 11:28 8,9 C 11,1 C 8,9 C 77 % 0 lf 1006,2 hPa 0,0 l/m 0 min 0 min 261 W/m 43,9 km/h (6 Bft) 91,30 %
29.03.2016 11:30 8,9 C 11,7 C 8,9 C 77 % 0 lf 1006,2 hPa 0,0 l/m 0 min 0 min 274 W/m 33,5 km/h (5 Bft) 91,49 %
29.03.2016 11:32 9,0 C 13,9 C 11,1 C 78 % 0 lf 1006,3 hPa 0,0 l/m 2 min 0 min 348 W/m 33,5 km/h (5 Bft) 91,49 %
29.03.2016 11:34 9,2 C 14,4 C 11,7 C 78 % 0 lf 1006,3 hPa 0,0 l/m 2 min 0 min 348 W/m 39,7 km/h (6 Bft) 93,62 %
29.03.2016 11:36 9,2 C 12,2 C 10,0 C 77 % 0 lf 1006,4 hPa 0,0 l/m 0 min 0 min 251 W/m 33,5 km/h (5 Bft) 95,74 %
29.03.2016 11:38 9,3 C 12,2 C 10,0 C 77 % 0 lf 1006,3 hPa 0,0 l/m 0 min 0 min 248 W/m 41,8 km/h (6 Bft) 93,62 %
29.03.2016 11:40 9,3 C 12,2 C 10,0 C 77 % 0 lf 1006,3 hPa 0,0 l/m 2 min 0 min 313 W/m 25,1 km/h (4 Bft) 93,48 %
29.03.2016 11:42 9,4 C 12,2 C 10,0 C 77 % 0 lf 1006,3 hPa 0,0 l/m 0 min 0 min 278 W/m 48,1 km/h (6 Bft) 97,87 %
29.03.2016 11:44 9,4 C 11,7 C 9,4 C 76 % 0 lf 1006,3 hPa 0,0 l/m 2 min 0 min 304 W/m 37,7 km/h (5 Bft) 93,62 %
29.03.2016 11:46 9,4 C 11,7 C 9,4 C 75 % 0 lf 1006,3 hPa 0,0 l/m 2 min 0 min 311 W/m 46,0 km/h (6 Bft) 95,74 %
29.03.2016 11:48 9,4 C 12,8 C 10,6 C 75 % 0 lf 1006,3 hPa 0,0 l/m 2 min 0 min 445 W/m 31,4 km/h (5 Bft) 93,62 %
29.03.2016 11:50 9,5 C 12,8 C 10,0 C 75 % 0 lf 1006,4 hPa 0,0 l/m 2 min 0 min 300 W/m 37,7 km/h (5 Bft) 95,65 %
29.03.2016 11:52 9,5 C 11,7 C 9,4 C 75 % 0 lf 1006,3 hPa 0,0 l/m 0 min 0 min 202 W/m 37,7 km/h (5 Bft) 97,87 %
29.03.2016 11:54 9,5 C 11,1 C 9,4 C 75 % 0 lf 1006,3 hPa 0,0 l/m 0 min 0 min 203 W/m 41,8 km/h (6 Bft) 95,74 %
29.03.2016 11:56 9,5 C 11,1 C 9,4 C 74 % 0 lf 1006,3 hPa 0,0 l/m 0 min 0 min 272 W/m 31,4 km/h (5 Bft) 97,87 %
29.03.2016 11:58 9,5 C 11,1 C 9,4 C 74 % 0 lf 1006,3 hPa 0,0 l/m 0 min 0 min 275 W/m 37,7 km/h (5 Bft) 95,74 %
29.03.2016 12:00 9,5 C 10,6 C 8,9 C 73 % 0 lf 1006,3 hPa 0,0 l/m 0 min 0 min 248 W/m 50,2 km/h (7 Bft) 100,00 %
29.03.2016 12:02 9,4 C 11,1 C 8,9 C 73 % 0 lf 1006,4 hPa 0,0 l/m 0 min 0 min 287 W/m 43,9 km/h (6 Bft) 100,00 %
29.03.2016 12:04 9,4 C 11,1 C 8,9 C 73 % 0 lf 1006,4 hPa 0,0 l/m 0 min 0 min 270 W/m 31,4 km/h (5 Bft) 97,92 %
29.03.2016 12:06 9,4 C 11,1 C 8,9 C 74 % 0 lf 1006,4 hPa 0,0 l/m 0 min 0 min 231 W/m 27,2 km/h (4 Bft) 95,74 %
29.03.2016 12:08 9,4 C 10,6 C 8,9 C 74 % 0 lf 1006,4 hPa 0,0 l/m 0 min 0 min 198 W/m 33,5 km/h (5 Bft) 95,74 %
29.03.2016 12:10 9,4 C 10,0 C 8,9 C 73 % 0 lf 1006,4 hPa 0,0 l/m 0 min 0 min 169 W/m 43,9 km/h (6 Bft) 100,00 %
29.03.2016 12:12 9,4 C 10,0 C 8,3 C 73 % 0 lf 1006,4 hPa 0,0 l/m 0 min 0 min 170 W/m 43,9 km/h (6 Bft) 100,00 %
29.03.2016 12:14 9,3 C 10,6 C 8,3 C 74 % 0 lf 1006,5 hPa 0,0 l/m 0 min 0 min 181 W/m 31,4 km/h (5 Bft) 95,74 %
29.03.2016 12:16 9,3 C 10,0 C 8,3 C 74 % 0 lf 1006,5 hPa 0,0 l/m 0 min 0 min 166 W/m 35,6 km/h (5 Bft) 97,87 %
29.03.2016 12:18 9,3 C 10,0 C 8,3 C 74 % 0 lf 1006,6 hPa 0,0 l/m 0 min 0 min 199 W/m 31,4 km/h (5 Bft) 95,74 %
29.03.2016 12:20 9,3 C 10,0 C 8,3 C 74 % 0 lf 1006,5 hPa 0,0 l/m 0 min 0 min 186 W/m 48,1 km/h (6 Bft) 97,83 %
29.03.2016 12:22 9,3 C 10,6 C 8,9 C 74 % 0 lf 1006,5 hPa 0,0 l/m 0 min 0 min 205 W/m 39,7 km/h (6 Bft) 95,74 %
29.03.2016 12:24 9,3 C 11,7 C 8,9 C 74 % 0 lf 1006,6 hPa 0,0 l/m 0 min 0 min 256 W/m 48,1 km/h (6 Bft) 95,74 %
29.03.2016 12:26 9,3 C 12,8 C 10,0 C 74 % 0 lf 1006,5 hPa 0,0 l/m 0 min 0 min 260 W/m 52,3 km/h (7 Bft) 100,00 %
29.03.2016 12:28 9,4 C 13,3 C 11,1 C 75 % 0 lf 1006,5 hPa 0,0 l/m 2 min 0 min 410 W/m 43,9 km/h (6 Bft) 100,00 %
29.03.2016 12:30 9,6 C 14,4 C 11,7 C 73 % 0 lf 1006,4 hPa 0,0 l/m 2 min 0 min 492 W/m 48,1 km/h (6 Bft) 100,00 %
29.03.2016 12:32 9,7 C 14,4 C 11,7 C 73 % 0 lf 1006,6 hPa 0,0 l/m 2 min 0 min 469 W/m 35,6 km/h (5 Bft) 100,00 %
29.03.2016 12:34 9,8 C 13,3 C 11,1 C 72 % 0 lf 1006,5 hPa 0,0 l/m 0 min 0 min 283 W/m 48,1 km/h (6 Bft) 97,87 %
29.03.2016 12:36 9,9 C 13,9 C 11,1 C 71 % 0 lf 1006,6 hPa 0,0 l/m 2 min 0 min 325 W/m 35,6 km/h (5 Bft) 100,00 %
29.03.2016 12:38 9,9 C 12,8 C 10,6 C 71 % 0 lf 1006,5 hPa 0,0 l/m 2 min 0 min 349 W/m 48,1 km/h (6 Bft) 95,65 %
29.03.2016 12:40 10,0 C 15,0 C 12,2 C 71 % 0 lf 1006,6 hPa 0,0 l/m 2 min 0 min 371 W/m 43,9 km/h (6 Bft) 95,74 %
29.03.2016 12:42 10,1 C 13,9 C 11,7 C 70 % 0 lf 1006,6 hPa 0,0 l/m 2 min 0 min 342 W/m 62,8 km/h (8 Bft) 100,00 %
29.03.2016 12:44 10,2 C 13,3 C 11,1 C 70 % 0 lf 1006,5 hPa 0,0 l/m 0 min 0 min 290 W/m 35,6 km/h (5 Bft) 100,00 %
29.03.2016 12:46 10,3 C 12,8 C 10,6 C 70 % 0 lf 1006,8 hPa 0,0 l/m 0 min 0 min 263 W/m 39,7 km/h (6 Bft) 95,74 %
29.03.2016 12:48 10,3 C 12,2 C 10,0 C 70 % 0 lf 1006,5 hPa 0,0 l/m 0 min 0 min 230 W/m 37,7 km/h (5 Bft) 100,00 %
29.03.2016 12:50 10,2 C 11,7 C 10,0 C 70 % 0 lf 1006,7 hPa 0,0 l/m 0 min 0 min 247 W/m 43,9 km/h (6 Bft) 100,00 %
29.03.2016 12:52 10,2 C 12,2 C 10,0 C 70 % 0 lf 1006,6 hPa 0,0 l/m 0 min 0 min 257 W/m 50,2 km/h (7 Bft) 100,00 %
29.03.2016 12:54 10,2 C 11,7 C 9,4 C 69 % 0 lf 1006,8 hPa 0,0 l/m 0 min 0 min 244 W/m 43,9 km/h (6 Bft) 100,00 %
29.03.2016 12:56 10,1 C 11,1 C 9,4 C 69 % 0 lf 1006,6 hPa 0,0 l/m 0 min 0 min 185 W/m 37,7 km/h (5 Bft) 100,00 %
29.03.2016 12:58 10,1 C 11,1 C 9,4 C 70 % 0 lf 1006,7 hPa 0,0 l/m 0 min 0 min 194 W/m 50,2 km/h (7 Bft) 97,87 %
29.03.2016 13:00 10,1 C 11,1 C 9,4 C 70 % 0 lf 1006,8 hPa 0,0 l/m 0 min 0 min 228 W/m 41,8 km/h (6 Bft) 100,00 %
29.03.2016 13:02 10,0 C 11,1 C 9,4 C 70 % 0 lf 1006,8 hPa 0,0 l/m 0 min 0 min 229 W/m 43,9 km/h (6 Bft) 97,87 %
29.03.2016 13:04 10,0 C 11,1 C 9,4 C 70 % 0 lf 1006,9 hPa 0,0 l/m 0 min 0 min 196 W/m 39,7 km/h (6 Bft) 100,00 %
29.03.2016 13:06 10,0 C 12,8 C 9,4 C 71 % 1 lf 1006,9 hPa 0,0 l/m 0 min 0 min 282 W/m 29,3 km/h (5 Bft) 95,74 %
29.03.2016 13:08 10,1 C 14,4 C 10,6 C 72 % 0 lf 1006,9 hPa 0,0 l/m 0 min 0 min 325 W/m 39,7 km/h (6 Bft) 97,87 %
29.03.2016 13:10 10,2 C 15,0 C 10,6 C 71 % 0 lf 1006,9 hPa 0,0 l/m 0 min 0 min 325 W/m 46,0 km/h (6 Bft) 97,87 %
29.03.2016 13:12 10,3 C 13,9 C 10,0 C 71 % 0 lf 1006,9 hPa 0,0 l/m 0 min 0 min 300 W/m 46,0 km/h (6 Bft) 97,87 %
29.03.2016 13:14 10,3 C 13,3 C 10,0 C 70 % 0 lf 1006,9 hPa 0,0 l/m 0 min 0 min 276 W/m 39,7 km/h (6 Bft) 95,65 %
29.03.2016 13:16 10,3 C 13,3 C 10,0 C 70 % 0 lf 1007,0 hPa 0,0 l/m 0 min 0 min 286 W/m 46,0 km/h (6 Bft) 97,87 %
29.03.2016 13:18 10,4 C 15,0 C 10,6 C 71 % 0 lf 1007,0 hPa 0,0 l/m 0 min 0 min 320 W/m 39,7 km/h (6 Bft) 95,74 %
29.03.2016 13:20 10,5 C 16,7 C 11,1 C 72 % 0 lf 1007,0 hPa 0,0 l/m 2 min 0 min 855 W/m 52,3 km/h (7 Bft) 97,87 %
29.03.2016 13:22 10,6 C 16,7 C 11,1 C 70 % 0 lf 1007,0 hPa 0,0 l/m 2 min 0 min 794 W/m 54,4 km/h (7 Bft) 93,62 %
29.03.2016 13:24 10,8 C 17,8 C 11,1 C 69 % 0 lf 1007,0 hPa 0,0 l/m 2 min 0 min 763 W/m 56,5 km/h (7 Bft) 95,65 %
29.03.2016 13:26 10,9 C 15,0 C 11,1 C 68 % 0 lf 1007,0 hPa 0,0 l/m 2 min 0 min 770 W/m 48,1 km/h (6 Bft) 97,87 %
29.03.2016 13:28 10,9 C 13,3 C 10,6 C 68 % 0 lf 1007,0 hPa 0,0 l/m 2 min 0 min 399 W/m 50,2 km/h (7 Bft) 95,74 %
29.03.2016 13:30 10,9 C 13,9 C 10,6 C 67 % 0 lf 1007,0 hPa 0,0 l/m 2 min 0 min 372 W/m 43,9 km/h (6 Bft) 95,74 %
29.03.2016 13:32 10,9 C 13,9 C 10,6 C 67 % 0 lf 1006,8 hPa 0,0 l/m 2 min 0 min 404 W/m 48,1 km/h (6 Bft) 95,74 %
29.03.2016 13:34 10,9 C 15,0 C 10,6 C 67 % 0 lf 1007,0 hPa 0,0 l/m 2 min 0 min 562 W/m 62,8 km/h (8 Bft) 95,74 %
29.03.2016 13:36 10,9 C 14,4 C 11,1 C 67 % 0 lf 1006,9 hPa 0,0 l/m 2 min 0 min 688 W/m 58,6 km/h (7 Bft) 93,48 %
29.03.2016 13:38 10,9 C 15,6 C 11,1 C 67 % 0 lf 1007,0 hPa 0,0 l/m 2 min 0 min 756 W/m 50,2 km/h (7 Bft) 93,62 %
29.03.2016 13:40 11,0 C 14,4 C 11,1 C 66 % 0 lf 1006,9 hPa 0,0 l/m 2 min 0 min 1048 W/m 50,2 km/h (7 Bft) 93,62 %
29.03.2016 13:42 11,0 C 13,9 C 10,6 C 67 % 0 lf 1007,0 hPa 0,0 l/m 2 min 0 min 1048 W/m 54,4 km/h (7 Bft) 93,62 %
29.03.2016 13:44 11,0 C 12,8 C 10,6 C 66 % 0 lf 1007,0 hPa 0,0 l/m 2 min 0 min 582 W/m 48,1 km/h (6 Bft) 93,62 %
29.03.2016 13:46 10,9 C 12,8 C 10,0 C 66 % 0 lf 1006,9 hPa 0,0 l/m 2 min 0 min 339 W/m 50,2 km/h (7 Bft) 89,36 %
29.03.2016 13:48 10,9 C 15,0 C 10,6 C 67 % 0 lf 1007,0 hPa 0,0 l/m 2 min 0 min 376 W/m 46,0 km/h (6 Bft) 91,30 %
29.03.2016 13:50 10,9 C 15,0 C 10,6 C 66 % 0 lf 1007,1 hPa 0,0 l/m 2 min 0 min 836 W/m 60,7 km/h (7 Bft) 93,62 %
29.03.2016 13:52 10,9 C 14,4 C 10,6 C 66 % 0 lf 1007,0 hPa 0,0 l/m 2 min 0 min 828 W/m 46,0 km/h (6 Bft) 89,36 %
29.03.2016 13:54 11,0 C 15,0 C 10,6 C 67 % 0 lf 1007,0 hPa 0,0 l/m 2 min 0 min 828 W/m 41,8 km/h (6 Bft) 93,62 %
29.03.2016 13:56 11,1 C 16,7 C 11,1 C 68 % 0 lf 1007,1 hPa 0,0 l/m 2 min 0 min 752 W/m 29,3 km/h (5 Bft) 93,62 %
29.03.2016 13:58 11,2 C 16,7 C 11,1 C 68 % 0 lf 1007,0 hPa 0,0 l/m 2 min 0 min 707 W/m 41,8 km/h (6 Bft) 89,36 %
29.03.2016 14:00 11,3 C 16,7 C 11,1 C 67 % 0 lf 1007,1 hPa 0,0 l/m 2 min 0 min 782 W/m 43,9 km/h (6 Bft) 91,30 %
29.03.2016 14:02 11,3 C 16,7 C 10,6 C 67 % 0 lf 1007,1 hPa 0,0 l/m 2 min 0 min 744 W/m 46,0 km/h (6 Bft) 93,62 %
29.03.2016 14:04 11,4 C 16,7 C 11,1 C 66 % 0 lf 1007,0 hPa 0,0 l/m 2 min 0 min 807 W/m 35,6 km/h (5 Bft) 95,74 %
29.03.2016 14:06 11,5 C 16,7 C 11,1 C 66 % 0 lf 1007,1 hPa 0,0 l/m 2 min 0 min 825 W/m 46,0 km/h (6 Bft) 93,62 %
29.03.2016 14:08 11,6 C 16,1 C 11,1 C 66 % 0 lf 1007,0 hPa 0,0 l/m 2 min 0 min 853 W/m 31,4 km/h (5 Bft) 91,49 %
29.03.2016 14:10 11,6 C 16,1 C 11,1 C 66 % 0 lf 1007,1 hPa 0,0 l/m 2 min 0 min 853 W/m 37,7 km/h (5 Bft) 86,96 %
29.03.2016 14:12 11,6 C 17,2 C 11,1 C 66 % 0 lf 1007,1 hPa 0,0 l/m 2 min 0 min 820 W/m 29,3 km/h (5 Bft) 91,49 %
29.03.2016 14:14 11,7 C 15,6 C 11,1 C 66 % 0 lf 1007,0 hPa 0,0 l/m 2 min 0 min 819 W/m 41,8 km/h (6 Bft) 91,49 %
29.03.2016 14:16 11,7 C 16,7 C 11,7 C 66 % 0 lf 1007,1 hPa 0,0 l/m 2 min 0 min 906 W/m 29,3 km/h (5 Bft) 93,62 %
29.03.2016 14:18 11,8 C 16,1 C 11,7 C 65 % 0 lf 1007,1 hPa 0,0 l/m 2 min 0 min 900 W/m 43,9 km/h (6 Bft) 95,74 %
29.03.2016 14:20 11,8 C 16,7 C 11,7 C 65 % 0 lf 1007,0 hPa 0,0 l/m 2 min 0 min 882 W/m 39,7 km/h (6 Bft) 97,87 %
29.03.2016 14:22 11,8 C 16,1 C 11,7 C 65 % 0 lf 1007,0 hPa 0,0 l/m 2 min 0 min 882 W/m 43,9 km/h (6 Bft) 91,30 %
29.03.2016 14:24 11,9 C 18,3 C 12,2 C 65 % 0 lf 1007,2 hPa 0,0 l/m 2 min 0 min 950 W/m 43,9 km/h (6 Bft) 93,62 %
29.03.2016 14:26 12,1 C 17,8 C 12,2 C 64 % 0 lf 1007,2 hPa 0,0 l/m 2 min 0 min 979 W/m 48,1 km/h (6 Bft) 95,74 %
29.03.2016 14:28 12,1 C 16,1 C 11,7 C 64 % 0 lf 1007,2 hPa 0,0 l/m 2 min 0 min 720 W/m 52,3 km/h (7 Bft) 93,62 %
29.03.2016 14:30 12,1 C 15,0 C 11,7 C 62 % 0 lf 1007,1 hPa 0,0 l/m 2 min 0 min 359 W/m 43,9 km/h (6 Bft) 95,74 %
29.03.2016 14:32 12,0 C 13,3 C 11,1 C 62 % 0 lf 1007,2 hPa 0,0 l/m 0 min 0 min 313 W/m 43,9 km/h (6 Bft) 95,74 %
29.03.2016 14:34 11,9 C 13,9 C 11,1 C 63 % 0 lf 1007,2 hPa 0,0 l/m 2 min 0 min 482 W/m 25,1 km/h (4 Bft) 93,48 %
29.03.2016 14:36 11,9 C 13,9 C 11,7 C 64 % 0 lf 1007,1 hPa 0,0 l/m 2 min 0 min 516 W/m 41,8 km/h (6 Bft) 95,74 %
29.03.2016 14:38 11,9 C 15,6 C 11,7 C 64 % 0 lf 1007,1 hPa 0,0 l/m 2 min 0 min 350 W/m 46,0 km/h (6 Bft) 95,74 %
29.03.2016 14:40 11,9 C 17,8 C 11,7 C 64 % 0 lf 1007,1 hPa 0,0 l/m 2 min 0 min 860 W/m 43,9 km/h (6 Bft) 95,74 %
29.03.2016 14:42 12,1 C 17,8 C 12,2 C 64 % 0 lf 1007,1 hPa 0,0 l/m 2 min 0 min 935 W/m 33,5 km/h (5 Bft) 95,74 %
29.03.2016 14:44 12,2 C 17,8 C 12,2 C 64 % 0 lf 1007,1 hPa 0,0 l/m 2 min 0 min 935 W/m 33,5 km/h (5 Bft) 97,87 %
29.03.2016 14:46 12,3 C 18,3 C 12,2 C 64 % 0 lf 1007,2 hPa 0,0 l/m 2 min 0 min 722 W/m 41,8 km/h (6 Bft) 95,65 %
29.03.2016 14:48 12,4 C 18,9 C 12,8 C 63 % 0 lf 1007,1 hPa 0,0 l/m 2 min 0 min 869 W/m 35,6 km/h (5 Bft) 100,00 %
29.03.2016 14:50 12,6 C 17,8 C 12,2 C 63 % 0 lf 1007,2 hPa 0,0 l/m 2 min 0 min 700 W/m 35,6 km/h (5 Bft) 97,87 %
29.03.2016 14:52 12,6 C 16,7 C 12,2 C 62 % 0 lf 1007,3 hPa 0,0 l/m 2 min 0 min 355 W/m 39,7 km/h (6 Bft) 97,87 %
29.03.2016 14:54 12,6 C 16,7 C 12,2 C 62 % 0 lf 1007,3 hPa 0,0 l/m 2 min 0 min 394 W/m 56,5 km/h (7 Bft) 95,74 %
29.03.2016 14:56 12,6 C 16,1 C 12,2 C 61 % 0 lf 1007,2 hPa 0,0 l/m 2 min 0 min 758 W/m 50,2 km/h (7 Bft) 100,00 %
29.03.2016 14:58 12,6 C 16,1 C 12,2 C 62 % 0 lf 1007,2 hPa 0,0 l/m 2 min 0 min 833 W/m 46,0 km/h (6 Bft) 100,00 %
29.03.2016 15:00 12,5 C 15,0 C 11,7 C 61 % 0 lf 1007,3 hPa 0,0 l/m 2 min 0 min 534 W/m 50,2 km/h (7 Bft) 100,00 %
29.03.2016 15:02 12,4 C 13,9 C 11,7 C 62 % 0 lf 1007,0 hPa 0,0 l/m 2 min 0 min 339 W/m 48,1 km/h (6 Bft) 100,00 %
29.03.2016 15:04 12,3 C 13,3 C 11,1 C 64 % 0 lf 1007,4 hPa 0,0 l/m 0 min 0 min 263 W/m 39,7 km/h (6 Bft) 100,00 %
29.03.2016 15:06 12,2 C 12,2 C 10,0 C 66 % 0 lf 1007,5 hPa 0,0 l/m 0 min 0 min 200 W/m 37,7 km/h (5 Bft) 97,87 %
29.03.2016 15:08 11,9 C 13,3 C 10,0 C 67 % 0 lf 1007,5 hPa 0,0 l/m 0 min 0 min 201 W/m 33,5 km/h (5 Bft) 97,87 %
29.03.2016 15:10 11,8 C 15,6 C 10,6 C 69 % 0 lf 1007,4 hPa 0,0 l/m 2 min 0 min 463 W/m 27,2 km/h (4 Bft) 100,00 %
29.03.2016 15:12 11,8 C 17,2 C 11,1 C 69 % 0 lf 1007,5 hPa 0,0 l/m 2 min 0 min 739 W/m 20,9 km/h (4 Bft) 100,00 %
29.03.2016 15:14 11,8 C 16,7 C 11,1 C 69 % 0 lf 1007,6 hPa 0,0 l/m 2 min 0 min 684 W/m 20,9 km/h (4 Bft) 100,00 %
29.03.2016 15:16 11,7 C 16,1 C 10,6 C 68 % 0 lf 1007,5 hPa 0,0 l/m 2 min 0 min 471 W/m 20,9 km/h (4 Bft) 97,87 %
29.03.2016 15:18 11,7 C 17,2 C 11,1 C 69 % 0 lf 1007,5 hPa 0,0 l/m 2 min 0 min 525 W/m 23,0 km/h (4 Bft) 100,00 %
29.03.2016 15:20 11,7 C 16,7 C 11,1 C 69 % 0 lf 1007,5 hPa 0,0 l/m 2 min 0 min 665 W/m 27,2 km/h (4 Bft) 97,87 %
29.03.2016 15:22 11,7 C 15,6 C 10,6 C 69 % 0 lf 1007,5 hPa 0,0 l/m 2 min 0 min 403 W/m 16,7 km/h (3 Bft) 100,00 %
29.03.2016 15:24 11,7 C 15,0 C 10,6 C 69 % 0 lf 1007,5 hPa 0,0 l/m 0 min 0 min 215 W/m 12,6 km/h (3 Bft) 95,74 %
29.03.2016 15:26 11,7 C 15,0 C 11,1 C 69 % 0 lf 1007,4 hPa 0,0 l/m 0 min 0 min 228 W/m 18,8 km/h (3 Bft) 100,00 %
29.03.2016 15:28 11,7 C 13,9 C 10,6 C 69 % 0 lf 1007,5 hPa 0,0 l/m 0 min 0 min 238 W/m 23,0 km/h (4 Bft) 100,00 %
29.03.2016 15:30 11,6 C 13,9 C 10,6 C 69 % 0 lf 1007,5 hPa 0,0 l/m 0 min 0 min 197 W/m 20,9 km/h (4 Bft) 97,87 %
29.03.2016 15:32 11,6 C 13,3 C 10,6 C 69 % 0 lf 1007,6 hPa 0,0 l/m 0 min 0 min 207 W/m 16,7 km/h (3 Bft) 100,00 %
29.03.2016 15:34 11,6 C 13,3 C 10,6 C 69 % 0 lf 1007,5 hPa 0,0 l/m 0 min 0 min 189 W/m 27,2 km/h (4 Bft) 100,00 %
29.03.2016 15:36 11,5 C 12,8 C 10,6 C 69 % 0 lf 1007,5 hPa 0,0 l/m 0 min 0 min 186 W/m 16,7 km/h (3 Bft) 100,00 %
29.03.2016 15:38 11,4 C 12,8 C 10,6 C 70 % 0 lf 1007,6 hPa 0,0 l/m 0 min 0 min 183 W/m 20,9 km/h (4 Bft) 97,87 %
29.03.2016 15:40 11,4 C 12,2 C 10,6 C 70 % 0 lf 1007,6 hPa 0,0 l/m 0 min 0 min 162 W/m 27,2 km/h (4 Bft) 100,00 %
29.03.2016 15:42 11,4 C 12,2 C 10,6 C 69 % 1 lf 1007,8 hPa 0,0 l/m 0 min 0 min 157 W/m 27,2 km/h (4 Bft) 97,87 %
29.03.2016 15:44 11,3 C 12,2 C 10,6 C 68 % 0 lf 1007,8 hPa 0,0 l/m 0 min 0 min 151 W/m 43,9 km/h (6 Bft) 100,00 %
29.03.2016 15:46 11,2 C 12,2 C 10,0 C 67 % 1 lf 1007,9 hPa 0,0 l/m 0 min 0 min 135 W/m 50,2 km/h (7 Bft) 97,87 %
29.03.2016 15:48 11,2 C 11,7 C 10,0 C 66 % 0 lf 1007,9 hPa 0,0 l/m 0 min 0 min 138 W/m 46,0 km/h (6 Bft) 97,87 %
29.03.2016 15:50 11,1 C 11,7 C 9,4 C 66 % 0 lf 1008,0 hPa 0,0 l/m 0 min 2 min 142 W/m 50,2 km/h (7 Bft) 97,87 %
29.03.2016 15:52 11,0 C 11,1 C 9,4 C 66 % 1 lf 1008,0 hPa 0,0 l/m 0 min 2 min 138 W/m 50,2 km/h (7 Bft) 97,87 %
29.03.2016 15:54 10,9 C 11,1 C 9,4 C 67 % 1 lf 1008,1 hPa 0,0 l/m 0 min 2 min 152 W/m 33,5 km/h (5 Bft) 97,87 %
29.03.2016 15:56 10,8 C 11,1 C 8,9 C 68 % 1 lf 1008,1 hPa 0,0 l/m 0 min 2 min 140 W/m 39,7 km/h (6 Bft) 91,30 %
29.03.2016 15:58 10,7 C 11,1 C 8,9 C 68 % 4 lf 1008,1 hPa 0,0 l/m 0 min 2 min 133 W/m 35,6 km/h (5 Bft) 93,62 %
29.03.2016 16:00 10,6 C 10,6 C 8,9 C 69 % 9 lf 1008,1 hPa 0,0 l/m 0 min 2 min 131 W/m 39,7 km/h (6 Bft) 95,74 %
29.03.2016 16:02 10,4 C 9,4 C 7,8 C 71 % 14 lf 1008,3 hPa 0,0 l/m 0 min 2 min 119 W/m 35,6 km/h (5 Bft) 91,49 %
29.03.2016 16:04 10,2 C 8,9 C 7,2 C 73 % 15 lf 1008,4 hPa 0,0 l/m 0 min 2 min 99 W/m 37,7 km/h (5 Bft) 95,74 %
29.03.2016 16:06 10,1 C 8,3 C 7,2 C 74 % 15 lf 1008,4 hPa 0,0 l/m 0 min 2 min 80 W/m 29,3 km/h (5 Bft) 95,74 %
29.03.2016 16:08 9,8 C 8,3 C 6,7 C 74 % 15 lf 1008,4 hPa 0,0 l/m 0 min 2 min 60 W/m 46,0 km/h (6 Bft) 95,65 %
29.03.2016 16:10 9,6 C 7,8 C 6,1 C 74 % 15 lf 1008,4 hPa 0,0 l/m 0 min 2 min 47 W/m 46,0 km/h (6 Bft) 91,49 %
29.03.2016 16:13 9,1 C 6,7 C 5,6 C 76 % 15 lf 1008,7 hPa 0,2 l/m 0 min 2 min 49 W/m 39,7 km/h (6 Bft) 94,29 %
29.03.2016 16:14 8,9 C 6,7 C 5,6 C 77 % 15 lf 1008,7 hPa 0,0 l/m 0 min 1 min 93 W/m 29,3 km/h (5 Bft) 95,83 %
29.03.2016 16:16 8,8 C 8,3 C 6,1 C 79 % 15 lf 1008,5 hPa 0,2 l/m 0 min 2 min 93 W/m 27,2 km/h (4 Bft) 93,62 %
29.03.2016 16:18 8,8 C 10,6 C 6,7 C 82 % 15 lf 1008,4 hPa 0,2 l/m 2 min 2 min 549 W/m 31,4 km/h (5 Bft) 91,49 %
29.03.2016 16:20 8,8 C 11,7 C 7,2 C 84 % 15 lf 1008,5 hPa 0,0 l/m 2 min 2 min 650 W/m 23,0 km/h (4 Bft) 91,30 %
29.03.2016 16:22 8,8 C 11,7 C 6,7 C 85 % 15 lf 1008,4 hPa 0,0 l/m 2 min 0 min 598 W/m 27,2 km/h (4 Bft) 95,74 %
29.03.2016 16:24 8,8 C 11,7 C 6,7 C 85 % 15 lf 1008,4 hPa 0,0 l/m 2 min 0 min 520 W/m 31,4 km/h (5 Bft) 95,74 %
29.03.2016 16:26 8,8 C 11,7 C 6,7 C 86 % 15 lf 1008,4 hPa 0,0 l/m 2 min 0 min 521 W/m 31,4 km/h (5 Bft) 95,74 %
29.03.2016 16:28 8,8 C 11,1 C 6,7 C 86 % 15 lf 1008,4 hPa 0,0 l/m 2 min 0 min 540 W/m 25,1 km/h (4 Bft) 97,87 %
29.03.2016 16:30 8,8 C 11,7 C 6,7 C 86 % 15 lf 1008,4 hPa 0,0 l/m 2 min 0 min 520 W/m 29,3 km/h (5 Bft) 95,74 %
29.03.2016 16:32 8,8 C 12,2 C 6,7 C 86 % 15 lf 1008,4 hPa 0,0 l/m 2 min 0 min 513 W/m 31,4 km/h (5 Bft) 91,30 %
29.03.2016 16:34 8,9 C 12,2 C 6,7 C 86 % 15 lf 1008,4 hPa 0,0 l/m 2 min 0 min 508 W/m 25,1 km/h (4 Bft) 95,74 %
29.03.2016 16:36 8,9 C 12,2 C 6,7 C 86 % 15 lf 1008,5 hPa 0,0 l/m 2 min 0 min 385 W/m 20,9 km/h (4 Bft) 93,62 %
29.03.2016 16:38 8,9 C 10,6 C 6,7 C 85 % 15 lf 1008,4 hPa 0,0 l/m 0 min 0 min 142 W/m 25,1 km/h (4 Bft) 95,74 %
29.03.2016 16:40 8,9 C 10,6 C 6,7 C 85 % 15 lf 1008,4 hPa 0,0 l/m 0 min 0 min 193 W/m 20,9 km/h (4 Bft) 95,74 %
29.03.2016 16:42 8,9 C 10,6 C 6,7 C 85 % 15 lf 1008,4 hPa 0,0 l/m 0 min 0 min 211 W/m 29,3 km/h (5 Bft) 95,74 %
29.03.2016 16:44 8,9 C 11,1 C 6,7 C 85 % 14 lf 1008,4 hPa 0,0 l/m 2 min 0 min 388 W/m 27,2 km/h (4 Bft) 95,65 %
29.03.2016 16:46 8,9 C 11,1 C 6,7 C 84 % 13 lf 1008,4 hPa 0,0 l/m 2 min 0 min 241 W/m 27,2 km/h (4 Bft) 93,62 %
29.03.2016 16:48 8,9 C 10,6 C 6,7 C 84 % 10 lf 1008,4 hPa 0,0 l/m 0 min 0 min 208 W/m 33,5 km/h (5 Bft) 97,87 %
29.03.2016 16:50 8,9 C 10,6 C 6,7 C 84 % 7 lf 1008,4 hPa 0,0 l/m 0 min 0 min 163 W/m 27,2 km/h (4 Bft) 95,74 %
29.03.2016 16:52 8,9 C 10,6 C 6,7 C 83 % 4 lf 1008,4 hPa 0,0 l/m 0 min 0 min 156 W/m 20,9 km/h (4 Bft) 97,87 %
29.03.2016 16:54 8,9 C 10,6 C 6,7 C 83 % 3 lf 1008,3 hPa 0,0 l/m 0 min 0 min 151 W/m 25,1 km/h (4 Bft) 95,65 %
29.03.2016 16:56 8,9 C 10,6 C 6,7 C 83 % 2 lf 1008,4 hPa 0,0 l/m 0 min 0 min 141 W/m 20,9 km/h (4 Bft) 97,87 %
29.03.2016 16:58 8,9 C 10,6 C 6,7 C 83 % 1 lf 1008,4 hPa 0,0 l/m 0 min 0 min 180 W/m 20,9 km/h (4 Bft) 93,62 %
29.03.2016 17:00 9,0 C 11,1 C 7,2 C 83 % 0 lf 1008,3 hPa 0,0 l/m 2 min 0 min 271 W/m 18,8 km/h (3 Bft) 93,62 %
29.03.2016 17:02 9,0 C 11,1 C 7,2 C 83 % 0 lf 1008,4 hPa 0,0 l/m 2 min 0 min 259 W/m 18,8 km/h (3 Bft) 93,62 %
29.03.2016 17:04 9,1 C 11,7 C 6,7 C 83 % 0 lf 1008,4 hPa 0,0 l/m 2 min 0 min 224 W/m 23,0 km/h (4 Bft) 95,74 %
29.03.2016 17:06 9,1 C 11,1 C 6,7 C 83 % 0 lf 1008,4 hPa 0,0 l/m 0 min 0 min 166 W/m 20,9 km/h (4 Bft) 95,65 %
29.03.2016 17:08 9,1 C 11,1 C 6,7 C 82 % 0 lf 1008,4 hPa 0,0 l/m 0 min 0 min 140 W/m 14,6 km/h (3 Bft) 95,74 %
29.03.2016 17:10 9,1 C 11,1 C 6,7 C 83 % 0 lf 1008,3 hPa 0,0 l/m 0 min 0 min 157 W/m 16,7 km/h (3 Bft) 95,74 %
29.03.2016 17:12 9,1 C 11,1 C 6,7 C 82 % 0 lf 1008,3 hPa 0,0 l/m 2 min 0 min 220 W/m 18,8 km/h (3 Bft) 91,49 %
29.03.2016 17:14 9,2 C 12,2 C 7,2 C 82 % 0 lf 1008,4 hPa 0,0 l/m 2 min 0 min 278 W/m 16,7 km/h (3 Bft) 93,62 %
29.03.2016 17:16 9,2 C 12,8 C 7,2 C 82 % 0 lf 1008,3 hPa 0,0 l/m 2 min 0 min 300 W/m 16,7 km/h (3 Bft) 95,74 %
29.03.2016 17:18 9,2 C 13,3 C 7,8 C 82 % 0 lf 1008,3 hPa 0,0 l/m 2 min 0 min 391 W/m 10,5 km/h (2 Bft) 97,83 %
29.03.2016 17:20 9,3 C 12,2 C 7,2 C 82 % 0 lf 1008,3 hPa 0,0 l/m 2 min 0 min 272 W/m 23,0 km/h (4 Bft) 95,74 %
29.03.2016 17:22 9,3 C 11,7 C 7,2 C 82 % 0 lf 1008,3 hPa 0,0 l/m 0 min 0 min 156 W/m 23,0 km/h (4 Bft) 95,74 %
29.03.2016 17:24 9,3 C 11,1 C 7,2 C 82 % 0 lf 1008,3 hPa 0,0 l/m 0 min 0 min 164 W/m 25,1 km/h (4 Bft) 95,74 %
29.03.2016 17:26 9,3 C 11,1 C 6,7 C 81 % 0 lf 1008,3 hPa 0,0 l/m 2 min 0 min 211 W/m 27,2 km/h (4 Bft) 95,74 %
29.03.2016 17:28 9,3 C 11,1 C 6,7 C 80 % 0 lf 1008,3 hPa 0,0 l/m 0 min 0 min 165 W/m 23,0 km/h (4 Bft) 89,36 %
29.03.2016 17:30 9,4 C 10,6 C 6,7 C 80 % 0 lf 1008,4 hPa 0,0 l/m 0 min 0 min 129 W/m 29,3 km/h (5 Bft) 93,48 %
29.03.2016 17:32 9,4 C 10,0 C 6,7 C 80 % 0 lf 1008,4 hPa 0,0 l/m 0 min 0 min 106 W/m 27,2 km/h (4 Bft) 95,74 %
29.03.2016 17:34 9,3 C 10,0 C 6,7 C 80 % 1 lf 1008,4 hPa 0,0 l/m 0 min 0 min 105 W/m 29,3 km/h (5 Bft) 95,74 %
29.03.2016 17:36 9,3 C 10,0 C 6,7 C 80 % 0 lf 1008,4 hPa 0,0 l/m 0 min 0 min 131 W/m 31,4 km/h (5 Bft) 93,62 %
29.03.2016 17:38 9,3 C 10,0 C 7,2 C 80 % 0 lf 1008,3 hPa 0,0 l/m 2 min 0 min 182 W/m 25,1 km/h (4 Bft) 97,87 %
29.03.2016 17:40 9,3 C 10,6 C 7,2 C 79 % 3 lf 1008,2 hPa 0,0 l/m 2 min 2 min 222 W/m 33,5 km/h (5 Bft) 95,74 %
29.03.2016 17:42 9,3 C 12,2 C 7,2 C 79 % 2 lf 1008,2 hPa 0,0 l/m 2 min 2 min 239 W/m 29,3 km/h (5 Bft) 97,83 %
29.03.2016 17:44 9,4 C 13,9 C 7,8 C 79 % 0 lf 1008,1 hPa 0,0 l/m 2 min 0 min 360 W/m 18,8 km/h (3 Bft) 97,87 %
29.03.2016 17:46 9,5 C 14,4 C 7,2 C 80 % 0 lf 1008,1 hPa 0,0 l/m 2 min 0 min 393 W/m 23,0 km/h (4 Bft) 91,49 %
29.03.2016 17:48 9,6 C 15,0 C 7,2 C 80 % 0 lf 1008,1 hPa 0,0 l/m 2 min 0 min 342 W/m 18,8 km/h (3 Bft) 97,87 %
29.03.2016 17:50 9,7 C 15,0 C 7,2 C 80 % 0 lf 1008,2 hPa 0,0 l/m 2 min 0 min 319 W/m 18,8 km/h (3 Bft) 97,87 %
29.03.2016 17:52 9,7 C 15,0 C 7,2 C 79 % 0 lf 1008,1 hPa 0,0 l/m 2 min 0 min 300 W/m 29,3 km/h (5 Bft) 97,87 %
29.03.2016 17:54 9,8 C 15,0 C 7,2 C 79 % 0 lf 1008,1 hPa 0,0 l/m 2 min 0 min 295 W/m 20,9 km/h (4 Bft) 95,65 %
29.03.2016 17:56 9,8 C 15,0 C 7,2 C 79 % 0 lf 1008,2 hPa 0,0 l/m 2 min 0 min 278 W/m 16,7 km/h (3 Bft) 93,62 %
29.03.2016 17:58 9,9 C 14,4 C 7,2 C 78 % 0 lf 1008,2 hPa 0,0 l/m 2 min 0 min 241 W/m 16,7 km/h (3 Bft) 97,87 %
29.03.2016 18:00 10,0 C 13,9 C 7,8 C 77 % 0 lf 1008,1 hPa 0,0 l/m 2 min 0 min 239 W/m 25,1 km/h (4 Bft) 95,74 %
29.03.2016 18:02 10,0 C 13,3 C 8,3 C 77 % 0 lf 1008,2 hPa 0,0 l/m 2 min 0 min 206 W/m 23,0 km/h (4 Bft) 97,87 %
29.03.2016 18:04 10,0 C 12,2 C 8,3 C 76 % 0 lf 1008,2 hPa 0,0 l/m 0 min 0 min 147 W/m 29,3 km/h (5 Bft) 95,74 %
29.03.2016 18:06 10,0 C 12,8 C 8,3 C 76 % 0 lf 1008,2 hPa 0,0 l/m 2 min 0 min 149 W/m 25,1 km/h (4 Bft) 100,00 %
29.03.2016 18:08 10,0 C 12,8 C 8,3 C 75 % 0 lf 1008,2 hPa 0,0 l/m 2 min 0 min 212 W/m 23,0 km/h (4 Bft) 95,74 %
29.03.2016 18:10 10,1 C 12,2 C 8,3 C 75 % 0 lf 1008,1 hPa 0,0 l/m 2 min 0 min 183 W/m 16,7 km/h (3 Bft) 95,74 %
29.03.2016 18:12 10,1 C 11,1 C 8,3 C 75 % 0 lf 1008,1 hPa 0,0 l/m 0 min 0 min 86 W/m 16,7 km/h (3 Bft) 97,87 %
29.03.2016 18:14 10,1 C 10,6 C 8,3 C 75 % 0 lf 1008,1 hPa 0,0 l/m 0 min 0 min 82 W/m 25,1 km/h (4 Bft) 97,87 %
29.03.2016 18:16 10,0 C 10,6 C 8,3 C 75 % 0 lf 1008,2 hPa 0,0 l/m 0 min 0 min 73 W/m 18,8 km/h (3 Bft) 95,65 %
29.03.2016 18:18 10,0 C 11,1 C 8,3 C 75 % 0 lf 1008,2 hPa 0,0 l/m 0 min 0 min 98 W/m 18,8 km/h (3 Bft) 95,74 %
29.03.2016 18:20 10,0 C 11,7 C 8,3 C 75 % 0 lf 1008,3 hPa 0,0 l/m 0 min 0 min 114 W/m 23,0 km/h (4 Bft) 91,49 %
29.03.2016 18:22 10,0 C 12,8 C 8,9 C 76 % 0 lf 1008,4 hPa 0,0 l/m 2 min 0 min 252 W/m 20,9 km/h (4 Bft) 97,87 %
29.03.2016 18:24 10,0 C 12,8 C 8,9 C 76 % 0 lf 1008,4 hPa 0,0 l/m 2 min 0 min 288 W/m 23,0 km/h (4 Bft) 97,87 %
29.03.2016 18:26 10,1 C 13,3 C 8,9 C 76 % 0 lf 1008,5 hPa 0,0 l/m 2 min 0 min 282 W/m 25,1 km/h (4 Bft) 93,62 %
29.03.2016 18:28 10,2 C 13,3 C 9,4 C 76 % 0 lf 1008,4 hPa 0,0 l/m 2 min 0 min 253 W/m 27,2 km/h (4 Bft) 97,83 %
29.03.2016 18:30 10,2 C 12,8 C 8,9 C 76 % 0 lf 1008,4 hPa 0,0 l/m 2 min 0 min 227 W/m 35,6 km/h (5 Bft) 97,87 %
29.03.2016 18:32 10,2 C 12,8 C 8,9 C 76 % 0 lf 1008,5 hPa 0,0 l/m 2 min 0 min 214 W/m 23,0 km/h (4 Bft) 95,74 %
29.03.2016 18:34 10,3 C 12,8 C 8,9 C 77 % 0 lf 1008,5 hPa 0,0 l/m 2 min 0 min 202 W/m 25,1 km/h (4 Bft) 91,49 %
29.03.2016 18:36 10,3 C 12,2 C 8,9 C 76 % 0 lf 1008,4 hPa 0,0 l/m 2 min 0 min 192 W/m 29,3 km/h (5 Bft) 95,74 %
29.03.2016 18:38 10,4 C 11,7 C 8,9 C 76 % 0 lf 1008,4 hPa 0,0 l/m 2 min 0 min 189 W/m 25,1 km/h (4 Bft) 93,62 %
29.03.2016 18:40 10,4 C 11,1 C 8,9 C 76 % 0 lf 1008,4 hPa 0,0 l/m 2 min 0 min 186 W/m 25,1 km/h (4 Bft) 97,83 %
29.03.2016 18:42 10,3 C 11,1 C 8,9 C 75 % 0 lf 1008,4 hPa 0,0 l/m 2 min 0 min 170 W/m 20,9 km/h (4 Bft) 97,87 %
29.03.2016 18:44 10,3 C 10,6 C 8,3 C 75 % 0 lf 1008,4 hPa 0,0 l/m 2 min 0 min 154 W/m 23,0 km/h (4 Bft) 97,87 %
29.03.2016 18:46 10,3 C 10,6 C 8,3 C 75 % 0 lf 1008,4 hPa 0,0 l/m 2 min 0 min 143 W/m 16,7 km/h (3 Bft) 97,87 %
29.03.2016 18:48 10,3 C 10,6 C 8,3 C 75 % 0 lf 1008,4 hPa 0,0 l/m 2 min 0 min 136 W/m 16,7 km/h (3 Bft) 97,87 %
29.03.2016 18:50 10,3 C 10,0 C 8,3 C 75 % 0 lf 1008,4 hPa 0,0 l/m 2 min 0 min 127 W/m 14,6 km/h (3 Bft) 91,49 %
29.03.2016 18:52 10,2 C 10,0 C 8,3 C 75 % 0 lf 1008,4 hPa 0,0 l/m 2 min 0 min 113 W/m 16,7 km/h (3 Bft) 93,48 %
29.03.2016 18:54 10,2 C 10,0 C 7,8 C 75 % 0 lf 1008,4 hPa 0,0 l/m 2 min 0 min 105 W/m 14,6 km/h (3 Bft) 91,49 %
29.03.2016 18:56 10,1 C 10,0 C 7,8 C 75 % 0 lf 1008,4 hPa 0,0 l/m 2 min 0 min 98 W/m 14,6 km/h (3 Bft) 93,62 %
29.03.2016 18:58 10,1 C 10,0 C 7,8 C 75 % 0 lf 1008,4 hPa 0,0 l/m 2 min 0 min 90 W/m 14,6 km/h (3 Bft) 95,74 %
29.03.2016 19:00 10,1 C 10,0 C 7,8 C 75 % 0 lf 1008,5 hPa 0,0 l/m 2 min 0 min 84 W/m 12,6 km/h (3 Bft) 97,87 %
29.03.2016 19:02 10,1 C 9,4 C 7,8 C 76 % 0 lf 1008,5 hPa 0,0 l/m 2 min 0 min 77 W/m 14,6 km/h (3 Bft) 95,74 %
29.03.2016 19:04 10,0 C 9,4 C 7,8 C 76 % 0 lf 1008,5 hPa 0,0 l/m 0 min 0 min 67 W/m 14,6 km/h (3 Bft) 93,48 %
29.03.2016 19:06 10,0 C 9,4 C 7,8 C 76 % 0 lf 1008,5 hPa 0,0 l/m 0 min 0 min 60 W/m 14,6 km/h (3 Bft) 95,74 %
29.03.2016 19:08 9,9 C 9,4 C 7,8 C 76 % 0 lf 1008,5 hPa 0,0 l/m 0 min 0 min 53 W/m 14,6 km/h (3 Bft) 93,62 %
29.03.2016 19:10 9,9 C 9,4 C 7,8 C 76 % 0 lf 1008,5 hPa 0,0 l/m 0 min 0 min 43 W/m 10,5 km/h (2 Bft) 91,49 %
29.03.2016 19:12 9,8 C 9,4 C 7,8 C 76 % 0 lf 1008,6 hPa 0,0 l/m 0 min 0 min 40 W/m 12,6 km/h (3 Bft) 97,87 %
29.03.2016 19:14 9,8 C 9,4 C 7,2 C 77 % 0 lf 1008,5 hPa 0,0 l/m 0 min 0 min 39 W/m 10,5 km/h (2 Bft) 97,83 %
29.03.2016 19:16 9,8 C 9,4 C 7,2 C 77 % 0 lf 1008,5 hPa 0,0 l/m 0 min 0 min 37 W/m 10,5 km/h (2 Bft) 97,87 %
29.03.2016 19:18 9,8 C 9,4 C 7,2 C 77 % 0 lf 1008,6 hPa 0,0 l/m 0 min 0 min 35 W/m 14,6 km/h (3 Bft) 93,62 %
29.03.2016 19:20 9,7 C 9,4 C 7,2 C 77 % 0 lf 1008,6 hPa 0,0 l/m 0 min 0 min 35 W/m 8,4 km/h (2 Bft) 95,74 %
29.03.2016 19:22 9,7 C 8,9 C 7,2 C 77 % 0 lf 1008,5 hPa 0,0 l/m 0 min 0 min 36 W/m 8,4 km/h (2 Bft) 97,87 %
29.03.2016 19:24 9,7 C 8,9 C 7,2 C 77 % 0 lf 1008,6 hPa 0,0 l/m 0 min 0 min 37 W/m 10,5 km/h (2 Bft) 97,87 %
29.03.2016 19:26 9,7 C 8,9 C 7,2 C 77 % 0 lf 1008,6 hPa 0,0 l/m 0 min 0 min 34 W/m 12,6 km/h (3 Bft) 97,87 %
29.03.2016 19:28 9,6 C 8,9 C 7,2 C 77 % 0 lf 1008,6 hPa 0,0 l/m 0 min 0 min 31 W/m 10,5 km/h (2 Bft) 95,65 %
29.03.2016 19:30 9,6 C 8,9 C 7,2 C 77 % 0 lf 1008,5 hPa 0,0 l/m 0 min 0 min 29 W/m 8,4 km/h (2 Bft) 95,74 %
29.03.2016 19:32 9,5 C 8,9 C 6,7 C 77 % 0 lf 1008,5 hPa 0,0 l/m 0 min 0 min 26 W/m 10,5 km/h (2 Bft) 97,87 %
29.03.2016 19:34 9,5 C 8,3 C 6,7 C 77 % 0 lf 1008,5 hPa 0,0 l/m 0 min 0 min 25 W/m 8,4 km/h (2 Bft) 97,87 %
29.03.2016 19:36 9,4 C 8,3 C 6,7 C 77 % 0 lf 1008,5 hPa 0,0 l/m 0 min 0 min 25 W/m 6,3 km/h (2 Bft) 95,74 %
29.03.2016 19:38 9,4 C 8,3 C 6,7 C 77 % 0 lf 1008,5 hPa 0,0 l/m 0 min 0 min 23 W/m 10,5 km/h (2 Bft) 100,00 %
29.03.2016 19:40 9,4 C 8,3 C 6,7 C 77 % 0 lf 1008,5 hPa 0,0 l/m 0 min 0 min 21 W/m 6,3 km/h (2 Bft) 100,00 %
29.03.2016 19:42 9,3 C 8,3 C 6,7 C 77 % 0 lf 1008,6 hPa 0,0 l/m 2 min 0 min 21 W/m 8,4 km/h (2 Bft) 95,74 %
29.03.2016 19:44 9,3 C 8,3 C 6,7 C 77 % 0 lf 1008,6 hPa 0,0 l/m 2 min 0 min 19 W/m 8,4 km/h (2 Bft) 95,74 %
29.03.2016 19:46 9,2 C 8,3 C 6,7 C 77 % 0 lf 1008,6 hPa 0,0 l/m 0 min 0 min 18 W/m 8,4 km/h (2 Bft) 93,62 %
29.03.2016 19:48 9,2 C 8,3 C 6,7 C 77 % 0 lf 1008,6 hPa 0,0 l/m 0 min 0 min 18 W/m 8,4 km/h (2 Bft) 95,74 %
29.03.2016 19:50 9,1 C 7,8 C 6,1 C 78 % 0 lf 1008,6 hPa 0,0 l/m 0 min 0 min 16 W/m 8,4 km/h (2 Bft) 100,00 %
29.03.2016 19:52 9,1 C 7,8 C 6,1 C 78 % 0 lf 1008,6 hPa 0,0 l/m 0 min 0 min 14 W/m 6,3 km/h (2 Bft) 100,00 %
29.03.2016 19:54 9,1 C 7,8 C 6,1 C 78 % 0 lf 1008,6 hPa 0,0 l/m 0 min 0 min 13 W/m 10,5 km/h (2 Bft) 97,87 %
29.03.2016 19:56 9,0 C 8,3 C 6,1 C 78 % 0 lf 1008,5 hPa 0,0 l/m 0 min 0 min 12 W/m 10,5 km/h (2 Bft) 97,87 %
29.03.2016 19:58 8,9 C 8,3 C 6,1 C 78 % 0 lf 1008,5 hPa 0,0 l/m 0 min 0 min 11 W/m 10,5 km/h (2 Bft) 97,87 %
29.03.2016 20:00 8,9 C 8,3 C 6,1 C 79 % 0 lf 1008,5 hPa 0,0 l/m 0 min 0 min 9 W/m 10,5 km/h (2 Bft) 100,00 %
29.03.2016 20:02 8,8 C 8,3 C 6,1 C 79 % 0 lf 1008,4 hPa 0,0 l/m 0 min 0 min 9 W/m 8,4 km/h (2 Bft) 100,00 %
29.03.2016 20:04 8,8 C 8,3 C 6,1 C 79 % 0 lf 1008,5 hPa 0,0 l/m 0 min 0 min 7 W/m 6,3 km/h (2 Bft) 100,00 %
29.03.2016 20:06 8,8 C 8,3 C 6,1 C 79 % 0 lf 1008,5 hPa 0,0 l/m 0 min 0 min 7 W/m 6,3 km/h (2 Bft) 97,87 %
29.03.2016 20:08 8,7 C 7,8 C 6,1 C 80 % 0 lf 1008,4 hPa 0,0 l/m 0 min 0 min 6 W/m 8,4 km/h (2 Bft) 95,74 %
29.03.2016 20:10 8,7 C 7,8 C 6,1 C 80 % 0 lf 1008,4 hPa 0,0 l/m 0 min 0 min 5 W/m 8,4 km/h (2 Bft) 97,87 %
29.03.2016 20:12 8,6 C 7,8 C 5,6 C 80 % 0 lf 1008,4 hPa 0,0 l/m 0 min 0 min 5 W/m 6,3 km/h (2 Bft) 97,87 %
29.03.2016 20:14 8,6 C 7,8 C 5,6 C 80 % 0 lf 1008,4 hPa 0,0 l/m 0 min 0 min 3 W/m 8,4 km/h (2 Bft) 97,83 %
29.03.2016 20:16 8,6 C 7,8 C 5,6 C 80 % 0 lf 1008,5 hPa 0,0 l/m 0 min 0 min 0 W/m 6,3 km/h (2 Bft) 93,62 %
29.03.2016 20:18 8,5 C 7,8 C 5,6 C 80 % 0 lf 1008,4 hPa 0,0 l/m 0 min 0 min 0 W/m 6,3 km/h (2 Bft) 95,74 %
29.03.2016 20:20 8,4 C 7,8 C 5,6 C 80 % 0 lf 1008,5 hPa 0,0 l/m 0 min 0 min 0 W/m 6,3 km/h (2 Bft) 95,74 %
29.03.2016 20:22 8,4 C 7,8 C 5,6 C 81 % 0 lf 1008,5 hPa 0,0 l/m 0 min 0 min 0 W/m 8,4 km/h (2 Bft) 95,74 %
29.03.2016 20:24 8,3 C 7,8 C 5,6 C 81 % 0 lf 1008,4 hPa 0,0 l/m 0 min 0 min 0 W/m 6,3 km/h (2 Bft) 95,74 %
29.03.2016 20:26 8,3 C 7,2 C 5,6 C 81 % 0 lf 1008,4 hPa 0,0 l/m 0 min 0 min 0 W/m 8,4 km/h (2 Bft) 95,65 %
29.03.2016 20:28 8,2 C 7,2 C 5,6 C 81 % 0 lf 1008,4 hPa 0,0 l/m 0 min 0 min 0 W/m 8,4 km/h (2 Bft) 91,49 %
29.03.2016 20:30 8,2 C 7,2 C 5,6 C 81 % 0 lf 1008,5 hPa 0,0 l/m 0 min 0 min 0 W/m 8,4 km/h (2 Bft) 95,74 %
29.03.2016 20:32 8,2 C 7,2 C 5,6 C 82 % 0 lf 1008,5 hPa 0,0 l/m 0 min 0 min 0 W/m 8,4 km/h (2 Bft) 95,74 %
29.03.2016 20:34 8,1 C 7,2 C 5,6 C 82 % 0 lf 1008,5 hPa 0,0 l/m 0 min 0 min 0 W/m 8,4 km/h (2 Bft) 95,74 %
29.03.2016 20:36 8,1 C 7,2 C 5,6 C 82 % 0 lf 1008,5 hPa 0,0 l/m 0 min 0 min 0 W/m 8,4 km/h (2 Bft) 93,48 %
29.03.2016 20:38 8,0 C 7,2 C 5,0 C 82 % 0 lf 1008,5 hPa 0,0 l/m 0 min 0 min 0 W/m 6,3 km/h (2 Bft) 93,62 %
29.03.2016 20:40 7,9 C 7,2 C 5,0 C 83 % 0 lf 1008,5 hPa 0,0 l/m 0 min 0 min 0 W/m 6,3 km/h (2 Bft) 91,49 %
29.03.2016 20:42 7,9 C 6,7 C 5,0 C 83 % 0 lf 1008,5 hPa 0,0 l/m 0 min 0 min 0 W/m 6,3 km/h (2 Bft) 93,62 %
29.03.2016 20:44 7,9 C 6,7 C 5,0 C 83 % 0 lf 1008,5 hPa 0,0 l/m 0 min 0 min 0 W/m 6,3 km/h (2 Bft) 93,62 %
29.03.2016 20:46 7,8 C 6,7 C 5,0 C 83 % 0 lf 1008,5 hPa 0,0 l/m 0 min 0 min 0 W/m 8,4 km/h (2 Bft) 91,49 %
29.03.2016 20:48 7,8 C 6,7 C 5,0 C 83 % 0 lf 1008,5 hPa 0,0 l/m 0 min 0 min 0 W/m 6,3 km/h (2 Bft) 93,48 %
29.03.2016 20:50 7,7 C 6,7 C 5,0 C 84 % 0 lf 1008,5 hPa 0,0 l/m 0 min 0 min 0 W/m 8,4 km/h (2 Bft) 91,49 %
29.03.2016 20:52 7,7 C 6,7 C 5,0 C 84 % 0 lf 1008,5 hPa 0,0 l/m 0 min 0 min 0 W/m 6,3 km/h (2 Bft) 93,62 %
29.03.2016 20:54 7,7 C 6,7 C 5,0 C 84 % 0 lf 1008,6 hPa 0,0 l/m 0 min 0 min 0 W/m 8,4 km/h (2 Bft) 93,62 %
29.03.2016 20:56 7,6 C 6,7 C 5,0 C 84 % 0 lf 1008,6 hPa 0,0 l/m 0 min 0 min 0 W/m 8,4 km/h (2 Bft) 93,62 %
29.03.2016 20:58 7,6 C 6,7 C 5,0 C 84 % 0 lf 1008,6 hPa 0,0 l/m 0 min 0 min 0 W/m 8,4 km/h (2 Bft) 95,74 %
29.03.2016 21:00 7,5 C 6,7 C 5,0 C 85 % 0 lf 1008,6 hPa 0,0 l/m 0 min 0 min 0 W/m 10,5 km/h (2 Bft) 95,65 %
29.03.2016 21:02 7,4 C 6,7 C 5,0 C 85 % 0 lf 1008,5 hPa 0,0 l/m 0 min 0 min 0 W/m 10,5 km/h (2 Bft) 93,62 %
29.03.2016 21:04 7,4 C 6,7 C 5,0 C 85 % 0 lf 1008,5 hPa 0,0 l/m 0 min 0 min 0 W/m 8,4 km/h (2 Bft) 91,49 %
29.03.2016 21:06 7,3 C 6,7 C 5,0 C 85 % 0 lf 1008,5 hPa 0,0 l/m 0 min 0 min 0 W/m 10,5 km/h (2 Bft) 93,62 %
29.03.2016 21:08 7,3 C 6,7 C 5,0 C 85 % 0 lf 1008,5 hPa 0,0 l/m 0 min 0 min 0 W/m 12,6 km/h (3 Bft) 93,62 %
29.03.2016 21:10 7,2 C 6,7 C 5,6 C 86 % 0 lf 1008,5 hPa 0,0 l/m 0 min 0 min 0 W/m 10,5 km/h (2 Bft) 95,74 %
29.03.2016 21:12 7,2 C 6,7 C 5,6 C 86 % 0 lf 1008,6 hPa 0,0 l/m 0 min 0 min 0 W/m 12,6 km/h (3 Bft) 95,65 %
29.03.2016 21:14 7,2 C 6,7 C 5,6 C 86 % 0 lf 1008,6 hPa 0,0 l/m 0 min 0 min 0 W/m 12,6 km/h (3 Bft) 97,87 %
29.03.2016 21:16 7,1 C 6,7 C 5,6 C 86 % 0 lf 1008,5 hPa 0,0 l/m 0 min 0 min 0 W/m 10,5 km/h (2 Bft) 97,87 %
29.03.2016 21:18 7,1 C 6,7 C 5,0 C 86 % 0 lf 1008,6 hPa 0,0 l/m 0 min 0 min 0 W/m 10,5 km/h (2 Bft) 95,74 %
29.03.2016 21:20 7,1 C 6,7 C 5,0 C 86 % 0 lf 1008,5 hPa 0,0 l/m 0 min 0 min 0 W/m 12,6 km/h (3 Bft) 93,62 %
29.03.2016 21:22 7,0 C 6,7 C 5,0 C 86 % 0 lf 1008,5 hPa 0,0 l/m 0 min 0 min 0 W/m 12,6 km/h (3 Bft) 97,87 %
29.03.2016 21:24 7,0 C 6,7 C 5,0 C 86 % 0 lf 1008,6 hPa 0,0 l/m 0 min 0 min 0 W/m 10,5 km/h (2 Bft) 97,83 %
29.03.2016 21:26 7,0 C 6,7 C 5,0 C 87 % 0 lf 1008,5 hPa 0,0 l/m 0 min 0 min 0 W/m 12,6 km/h (3 Bft) 93,62 %
29.03.2016 21:28 6,9 C 6,7 C 5,0 C 87 % 0 lf 1008,6 hPa 0,0 l/m 0 min 0 min 0 W/m 12,6 km/h (3 Bft) 97,87 %
29.03.2016 21:30 6,9 C 6,7 C 5,0 C 87 % 0 lf 1008,6 hPa 0,0 l/m 0 min 0 min 0 W/m 12,6 km/h (3 Bft) 95,74 %
29.03.2016 21:32 6,9 C 6,7 C 5,0 C 87 % 0 lf 1008,6 hPa 0,0 l/m 0 min 0 min 0 W/m 10,5 km/h (2 Bft) 97,87 %
29.03.2016 21:34 6,9 C 6,7 C 5,0 C 87 % 0 lf 1008,5 hPa 0,0 l/m 0 min 0 min 0 W/m 14,6 km/h (3 Bft) 100,00 %
29.03.2016 21:36 6,9 C 6,7 C 5,6 C 87 % 0 lf 1008,5 hPa 0,0 l/m 0 min 0 min 0 W/m 10,5 km/h (2 Bft) 97,83 %
29.03.2016 21:38 6,9 C 6,7 C 5,0 C 87 % 0 lf 1008,5 hPa 0,0 l/m 0 min 0 min 0 W/m 12,6 km/h (3 Bft) 97,87 %
29.03.2016 21:40 6,9 C 6,7 C 5,0 C 87 % 0 lf 1008,5 hPa 0,0 l/m 0 min 0 min 0 W/m 10,5 km/h (2 Bft) 100,00 %
29.03.2016 21:42 6,9 C 6,7 C 5,6 C 87 % 0 lf 1008,5 hPa 0,0 l/m 0 min 0 min 0 W/m 10,5 km/h (2 Bft) 95,74 %
29.03.2016 21:44 6,9 C 6,7 C 5,0 C 87 % 0 lf 1008,5 hPa 0,0 l/m 0 min 0 min 0 W/m 10,5 km/h (2 Bft) 91,49 %
29.03.2016 21:46 6,8 C 6,7 C 5,0 C 88 % 0 lf 1008,5 hPa 0,0 l/m 0 min 0 min 0 W/m 18,8 km/h (3 Bft) 97,87 %
29.03.2016 21:48 6,9 C 6,7 C 5,6 C 88 % 0 lf 1008,4 hPa 0,0 l/m 0 min 0 min 0 W/m 18,8 km/h (3 Bft) 97,83 %
29.03.2016 21:50 6,9 C 7,2 C 5,6 C 88 % 0 lf 1008,4 hPa 0,0 l/m 0 min 0 min 0 W/m 12,6 km/h (3 Bft) 97,87 %
29.03.2016 21:52 6,9 C 6,7 C 5,6 C 88 % 0 lf 1008,3 hPa 0,0 l/m 0 min 0 min 0 W/m 14,6 km/h (3 Bft) 95,74 %
29.03.2016 21:54 6,9 C 7,2 C 5,6 C 88 % 0 lf 1008,3 hPa 0,0 l/m 0 min 0 min 0 W/m 16,7 km/h (3 Bft) 97,87 %
29.03.2016 21:56 6,9 C 7,2 C 5,6 C 88 % 0 lf 1008,3 hPa 0,0 l/m 0 min 0 min 0 W/m 14,6 km/h (3 Bft) 97,87 %
29.03.2016 21:58 6,9 C 7,2 C 5,6 C 88 % 0 lf 1008,3 hPa 0,0 l/m 0 min 0 min 0 W/m 16,7 km/h (3 Bft) 97,83 %
29.03.2016 22:00 6,9 C 6,7 C 5,6 C 88 % 0 lf 1008,3 hPa 0,0 l/m 0 min 0 min 0 W/m 14,6 km/h (3 Bft) 95,74 %
29.03.2016 22:02 6,9 C 6,7 C 5,6 C 89 % 0 lf 1008,3 hPa 0,0 l/m 0 min 0 min 0 W/m 16,7 km/h (3 Bft) 91,49 %
29.03.2016 22:04 6,9 C 6,7 C 5,6 C 89 % 0 lf 1008,2 hPa 0,0 l/m 0 min 0 min 0 W/m 16,7 km/h (3 Bft) 95,74 %
29.03.2016 22:06 6,8 C 7,2 C 5,6 C 89 % 0 lf 1008,2 hPa 0,0 l/m 0 min 0 min 0 W/m 16,7 km/h (3 Bft) 97,87 %
29.03.2016 22:08 6,9 C 6,7 C 5,6 C 89 % 0 lf 1008,2 hPa 0,0 l/m 0 min 0 min 0 W/m 12,6 km/h (3 Bft) 97,87 %
29.03.2016 22:10 6,9 C 6,7 C 5,6 C 89 % 0 lf 1008,2 hPa 0,0 l/m 0 min 0 min 0 W/m 18,8 km/h (3 Bft) 97,83 %
29.03.2016 22:12 6,9 C 7,2 C 5,6 C 89 % 0 lf 1008,2 hPa 0,0 l/m 0 min 0 min 0 W/m 16,7 km/h (3 Bft) 95,74 %
29.03.2016 22:14 6,9 C 7,2 C 5,6 C 89 % 0 lf 1008,2 hPa 0,0 l/m 0 min 0 min 0 W/m 16,7 km/h (3 Bft) 95,74 %
29.03.2016 22:16 6,9 C 7,2 C 5,6 C 89 % 0 lf 1008,2 hPa 0,0 l/m 0 min 0 min 0 W/m 16,7 km/h (3 Bft) 97,87 %
29.03.2016 22:18 6,9 C 6,7 C 5,6 C 89 % 0 lf 1008,2 hPa 0,0 l/m 0 min 0 min 0 W/m 14,6 km/h (3 Bft) 93,62 %
29.03.2016 22:20 6,8 C 7,2 C 5,6 C 89 % 0 lf 1008,2 hPa 0,0 l/m 0 min 0 min 0 W/m 16,7 km/h (3 Bft) 95,74 %
29.03.2016 22:22 6,9 C 7,2 C 5,6 C 89 % 0 lf 1008,2 hPa 0,0 l/m 0 min 0 min 0 W/m 20,9 km/h (4 Bft) 97,83 %
29.03.2016 22:24 6,8 C 7,2 C 5,6 C 89 % 0 lf 1008,2 hPa 0,0 l/m 0 min 0 min 0 W/m 20,9 km/h (4 Bft) 95,74 %
29.03.2016 22:26 6,9 C 7,2 C 5,6 C 89 % 0 lf 1008,1 hPa 0,0 l/m 0 min 0 min 0 W/m 16,7 km/h (3 Bft) 97,87 %
29.03.2016 22:28 6,9 C 7,2 C 5,6 C 89 % 0 lf 1008,1 hPa 0,0 l/m 0 min 0 min 0 W/m 16,7 km/h (3 Bft) 97,87 %
29.03.2016 22:30 6,9 C 7,2 C 5,6 C 89 % 0 lf 1008,1 hPa 0,0 l/m 0 min 0 min 0 W/m 20,9 km/h (4 Bft) 97,87 %
29.03.2016 22:32 6,9 C 7,2 C 5,6 C 89 % 0 lf 1008,1 hPa 0,0 l/m 0 min 0 min 0 W/m 18,8 km/h (3 Bft) 93,62 %
29.03.2016 22:34 6,9 C 7,2 C 5,6 C 89 % 0 lf 1008,0 hPa 0,0 l/m 0 min 0 min 0 W/m 18,8 km/h (3 Bft) 95,65 %
29.03.2016 22:36 6,9 C 7,2 C 5,6 C 89 % 0 lf 1008,0 hPa 0,0 l/m 0 min 0 min 0 W/m 14,6 km/h (3 Bft) 95,74 %
29.03.2016 22:38 6,9 C 7,2 C 5,6 C 89 % 0 lf 1008,0 hPa 0,0 l/m 0 min 0 min 0 W/m 18,8 km/h (3 Bft) 97,87 %
29.03.2016 22:40 6,9 C 7,2 C 5,6 C 89 % 0 lf 1007,9 hPa 0,0 l/m 0 min 0 min 0 W/m 16,7 km/h (3 Bft) 95,74 %
29.03.2016 22:42 6,9 C 7,2 C 5,6 C 90 % 0 lf 1007,9 hPa 0,0 l/m 0 min 0 min 0 W/m 16,7 km/h (3 Bft) 93,62 %
29.03.2016 22:44 6,9 C 7,2 C 5,6 C 90 % 0 lf 1007,9 hPa 0,0 l/m 0 min 0 min 0 W/m 16,7 km/h (3 Bft) 95,74 %
29.03.2016 22:46 6,9 C 7,2 C 5,6 C 90 % 0 lf 1007,9 hPa 0,0 l/m 0 min 0 min 0 W/m 18,8 km/h (3 Bft) 91,30 %
29.03.2016 22:48 6,9 C 7,2 C 5,6 C 90 % 0 lf 1007,8 hPa 0,0 l/m 0 min 0 min 0 W/m 18,8 km/h (3 Bft) 91,49 %
29.03.2016 22:50 6,9 C 7,2 C 5,6 C 90 % 0 lf 1007,8 hPa 0,0 l/m 0 min 0 min 0 W/m 18,8 km/h (3 Bft) 93,62 %
29.03.2016 22:52 6,9 C 7,2 C 5,6 C 90 % 0 lf 1007,8 hPa 0,0 l/m 0 min 0 min 0 W/m 23,0 km/h (4 Bft) 95,74 %
29.03.2016 22:54 6,9 C 7,2 C 5,6 C 90 % 0 lf 1007,8 hPa 0,0 l/m 0 min 0 min 0 W/m 20,9 km/h (4 Bft) 93,62 %
29.03.2016 22:56 6,9 C 7,2 C 5,6 C 90 % 0 lf 1007,8 hPa 0,0 l/m 0 min 0 min 0 W/m 20,9 km/h (4 Bft) 95,74 %
29.03.2016 22:58 7,0 C 7,2 C 5,6 C 90 % 0 lf 1007,9 hPa 0,0 l/m 0 min 0 min 0 W/m 16,7 km/h (3 Bft) 95,65 %
29.03.2016 23:00 7,0 C 7,2 C 5,6 C 89 % 0 lf 1007,9 hPa 0,0 l/m 0 min 0 min 0 W/m 20,9 km/h (4 Bft) 93,62 %
29.03.2016 23:02 7,0 C 7,2 C 5,6 C 89 % 0 lf 1007,9 hPa 0,0 l/m 0 min 0 min 0 W/m 20,9 km/h (4 Bft) 93,62 %
29.03.2016 23:04 7,0 C 7,2 C 5,6 C 90 % 0 lf 1007,9 hPa 0,0 l/m 0 min 0 min 0 W/m 14,6 km/h (3 Bft) 95,74 %
29.03.2016 23:06 7,0 C 7,2 C 5,6 C 90 % 0 lf 1007,9 hPa 0,0 l/m 0 min 0 min 0 W/m 20,9 km/h (4 Bft) 95,74 %
29.03.2016 23:08 7,0 C 7,2 C 5,6 C 89 % 0 lf 1007,8 hPa 0,0 l/m 0 min 0 min 0 W/m 16,7 km/h (3 Bft) 89,13 %
29.03.2016 23:10 7,0 C 7,2 C 5,6 C 89 % 0 lf 1007,9 hPa 0,0 l/m 0 min 0 min 0 W/m 16,7 km/h (3 Bft) 97,87 %
29.03.2016 23:12 7,1 C 7,2 C 5,6 C 89 % 0 lf 1007,9 hPa 0,0 l/m 0 min 0 min 0 W/m 16,7 km/h (3 Bft) 97,87 %
29.03.2016 23:14 7,0 C 7,2 C 5,6 C 89 % 0 lf 1007,9 hPa 0,0 l/m 0 min 0 min 0 W/m 12,6 km/h (3 Bft) 95,74 %
29.03.2016 23:16 7,1 C 7,2 C 5,6 C 89 % 0 lf 1007,9 hPa 0,0 l/m 0 min 0 min 0 W/m 14,6 km/h (3 Bft) 97,87 %
29.03.2016 23:18 7,0 C 7,2 C 5,6 C 89 % 0 lf 1007,8 hPa 0,0 l/m 0 min 0 min 0 W/m 14,6 km/h (3 Bft) 97,87 %
29.03.2016 23:20 7,0 C 7,2 C 5,6 C 89 % 0 lf 1007,8 hPa 0,0 l/m 0 min 0 min 0 W/m 12,6 km/h (3 Bft) 97,83 %
29.03.2016 23:22 7,0 C 7,2 C 5,6 C 89 % 0 lf 1007,8 hPa 0,0 l/m 0 min 0 min 0 W/m 12,6 km/h (3 Bft) 93,62 %
29.03.2016 23:24 7,1 C 7,2 C 5,6 C 89 % 0 lf 1007,7 hPa 0,0 l/m 0 min 0 min 0 W/m 12,6 km/h (3 Bft) 97,87 %
29.03.2016 23:26 7,0 C 7,2 C 5,6 C 89 % 0 lf 1007,7 hPa 0,0 l/m 0 min 0 min 0 W/m 12,6 km/h (3 Bft) 97,87 %
29.03.2016 23:28 7,0 C 7,2 C 5,6 C 89 % 0 lf 1007,6 hPa 0,0 l/m 0 min 0 min 0 W/m 12,6 km/h (3 Bft) 95,74 %
29.03.2016 23:30 7,0 C 7,2 C 5,6 C 89 % 0 lf 1007,5 hPa 0,0 l/m 0 min 0 min 0 W/m 10,5 km/h (2 Bft) 97,87 %
29.03.2016 23:32 7,0 C 7,2 C 5,6 C 89 % 0 lf 1007,5 hPa 0,0 l/m 0 min 0 min 0 W/m 10,5 km/h (2 Bft) 100,00 %
29.03.2016 23:34 7,0 C 7,2 C 5,6 C 89 % 0 lf 1007,5 hPa 0,0 l/m 0 min 0 min 0 W/m 10,5 km/h (2 Bft) 100,00 %
29.03.2016 23:36 7,0 C 7,2 C 5,6 C 89 % 0 lf 1007,6 hPa 0,0 l/m 0 min 0 min 0 W/m 12,6 km/h (3 Bft) 97,87 %
29.03.2016 23:38 7,0 C 7,2 C 5,6 C 89 % 0 lf 1007,5 hPa 0,0 l/m 0 min 0 min 0 W/m 10,5 km/h (2 Bft) 97,87 %
29.03.2016 23:40 7,0 C 7,2 C 5,6 C 89 % 0 lf 1007,4 hPa 0,0 l/m 0 min 0 min 0 W/m 8,4 km/h (2 Bft) 100,00 %
29.03.2016 23:42 7,0 C 7,2 C 5,6 C 89 % 0 lf 1007,3 hPa 0,0 l/m 0 min 0 min 0 W/m 8,4 km/h (2 Bft) 97,87 %
29.03.2016 23:44 7,0 C 7,2 C 5,6 C 89 % 0 lf 1007,4 hPa 0,0 l/m 0 min 0 min 0 W/m 10,5 km/h (2 Bft) 97,83 %
29.03.2016 23:46 7,0 C 7,2 C 5,6 C 89 % 0 lf 1007,4 hPa 0,0 l/m 0 min 0 min 0 W/m 12,6 km/h (3 Bft) 97,87 %
29.03.2016 23:48 6,9 C 7,2 C 5,6 C 89 % 0 lf 1007,3 hPa 0,0 l/m 0 min 0 min 0 W/m 10,5 km/h (2 Bft) 100,00 %
29.03.2016 23:50 6,9 C 7,2 C 5,6 C 89 % 0 lf 1007,3 hPa 0,0 l/m 0 min 0 min 0 W/m 8,4 km/h (2 Bft) 100,00 %
29.03.2016 23:52 7,0 C 7,2 C 5,6 C 89 % 0 lf 1007,3 hPa 0,0 l/m 0 min 0 min 0 W/m 8,4 km/h (2 Bft) 97,87 %
29.03.2016 23:54 7,0 C 7,2 C 5,6 C 89 % 0 lf 1007,3 hPa 0,0 l/m 0 min 0 min 0 W/m 8,4 km/h (2 Bft) 100,00 %
29.03.2016 23:56 7,0 C 7,2 C 5,6 C 89 % 0 lf 1007,3 hPa 0,0 l/m 0 min 0 min 0 W/m 10,5 km/h (2 Bft) 97,83 %
29.03.2016 23:58 7,0 C 7,2 C 5,6 C 89 % 0 lf 1007,2 hPa 0,0 l/m 0 min 0 min 0 W/m 12,6 km/h (3 Bft) 95,74 %
_ Min-Zeit 03:04 02:12 02:10 14:56 00:00 00:00 - - - - 04:02 04:02
Minimum _ 5,6 C 5,0 C 3,9 C 61 % 0 lf 999,1 hPa - - - - 0,0 km/h (0 Bft) 0,00 %
_ Max-Zeit 14:50 14:48 14:48 03:30 01:58 16:13 02:06 09:00 00:12 13:40 12:42 00:02
Maximum _ 12,6 C 18,9 C 12,8 C 93 % 15 lf 1008,7 hPa 0,2 l/m 2 min 2 min 1048 W/m 62,8 km/h
W (8 Bft)
100,00 %
Durchschnitt _ 8,1 C 8,9 C 6,7 C 81 % 3 lf 1005,3 hPa #1,8 l/m #5:00 h #4:29 h 250 W/m 29,0 km/h (5 Bft) 95,61 %
© 2016 W. Hausmann